Time,TemperatureF,DewpointF,PressureIn,WindDirection,WindDirectionDegrees,WindSpeedMPH,WindSpeedGustMPH,Humidity,HourlyPrecipIn,Conditions,Clouds,dailyrainin,SoftwareType,DateUTC
2013-05-06 00:00:00,53.2,48.5,29.71,WSW,241,4.0,4.0,84,0.07,RA,SCT,0.48,WeatherDisplay:10.37,2013-05-06 04:00:00,
2013-05-06 00:01:00,53.2,48.5,29.72,WSW,240,5.8,5.8,84,0.07,RA,SCT,0.00,WeatherDisplay:10.37,2013-05-06 04:01:00,
2013-05-06 00:02:00,53.1,48.4,29.72,WSW,240,3.5,3.5,84,0.07,RA,SCT,0.00,WeatherDisplay:10.37,2013-05-06 04:02:00,
2013-05-06 00:06:00,53.1,48.4,29.72,WSW,240,0.0,0.0,84,0.08,RA,SCT,0.01,WeatherDisplay:10.37,2013-05-06 04:06:00,
2013-05-06 00:07:00,53.1,48.4,29.72,WSW,242,0.0,0.0,84,0.08,RA,SCT,0.01,WeatherDisplay:10.37,2013-05-06 04:07:00,
2013-05-06 00:08:00,53.1,48.4,29.72,West,266,2.0,2.3,84,0.08,RA,SCT,0.01,WeatherDisplay:10.37,2013-05-06 04:08:00,
2013-05-06 00:12:00,53.1,48.7,29.71,WSW,248,2.3,2.3,85,0.09,RA,SCT,0.02,WeatherDisplay:10.37,2013-05-06 04:12:00,
2013-05-06 00:13:00,53.1,48.7,29.71,WSW,250,3.5,3.5,85,0.10,RA,SCT,0.03,WeatherDisplay:10.37,2013-05-06 04:13:00,
2013-05-06 00:14:00,53.1,48.7,29.71,WSW,257,3.5,3.5,85,0.10,RA,SCT,0.03,WeatherDisplay:10.37,2013-05-06 04:14:00,
2013-05-06 00:17:00,52.9,48.5,29.71,WSW,257,2.3,2.3,85,0.11,RA,SCT,0.04,WeatherDisplay:10.37,2013-05-06 04:17:00,
2013-05-06 00:19:00,52.9,48.5,29.71,WSW,257,3.5,3.5,85,0.11,RA,SCT,0.05,WeatherDisplay:10.37,2013-05-06 04:19:00,
2013-05-06 00:21:00,52.9,48.5,29.71,WSW,257,1.1,1.1,85,0.11,RA,SCT,0.05,WeatherDisplay:10.37,2013-05-06 04:21:00,
2013-05-06 00:22:00,52.9,48.5,29.71,WSW,257,0.0,0.0,85,0.12,RA,SCT,0.06,WeatherDisplay:10.37,2013-05-06 04:22:00,
2013-05-06 00:25:00,52.8,48.4,29.71,WSW,257,0.0,0.0,85,0.13,RA,SCT,0.07,WeatherDisplay:10.37,2013-05-06 04:25:00,
2013-05-06 00:26:00,52.8,48.4,29.71,WSW,257,0.0,0.0,85,0.12,RA,SCT,0.07,WeatherDisplay:10.37,2013-05-06 04:26:00,
2013-05-06 00:27:00,52.8,48.4,29.71,WSW,257,0.0,0.0,85,0.13,RA,SCT,0.08,WeatherDisplay:10.37,2013-05-06 04:27:00,
2013-05-06 00:31:00,52.8,48.4,29.72,WSW,257,0.0,0.0,85,0.14,RA,SCT,0.09,WeatherDisplay:10.37,2013-05-06 04:31:00,
2013-05-06 00:33:00,52.8,48.4,29.72,WSW,256,0.0,0.0,85,0.14,RA,SCT,0.09,WeatherDisplay:10.37,2013-05-06 04:33:00,
2013-05-06 00:34:00,52.8,48.4,29.72,WSW,256,0.0,0.0,85,0.15,RA,SCT,0.10,WeatherDisplay:10.37,2013-05-06 04:34:00,
2013-05-06 00:35:00,52.8,48.4,29.72,WSW,256,0.0,0.0,85,0.15,RA,SCT,0.10,WeatherDisplay:10.37,2013-05-06 04:35:00,
2013-05-06 00:37:00,52.6,48.2,29.71,NNW,334,0.0,0.0,85,0.16,RA,SCT,0.11,WeatherDisplay:10.37,2013-05-06 04:37:00,
2013-05-06 00:39:00,52.6,48.2,29.71,NNW,341,2.3,2.3,85,0.15,RA,SCT,0.11,WeatherDisplay:10.37,2013-05-06 04:39:00,
2013-05-06 00:40:00,52.6,48.2,29.71,NNW,342,2.3,2.3,85,0.15,RA,SCT,0.11,WeatherDisplay:10.37,2013-05-06 04:40:00,
2013-05-06 00:44:00,52.6,48.2,29.70,NNW,342,0.0,0.0,85,0.15,RA,SCT,0.12,WeatherDisplay:10.37,2013-05-06 04:44:00,
2013-05-06 00:45:00,52.6,48.2,29.70,NNW,342,0.0,0.0,85,0.15,RA,SCT,0.12,WeatherDisplay:10.37,2013-05-06 04:45:00,
2013-05-06 00:47:00,52.5,48.1,29.70,NNW,342,0.0,0.0,85,0.16,RA,SCT,0.13,WeatherDisplay:10.37,2013-05-06 04:47:00,
2013-05-06 00:50:00,52.5,48.1,29.70,NNW,343,0.0,0.0,85,0.15,RA,SCT,0.13,WeatherDisplay:10.37,2013-05-06 04:50:00,
2013-05-06 00:52:00,52.5,48.1,29.71,NNW,344,0.0,0.0,85,0.16,RA,SCT,0.14,WeatherDisplay:10.37,2013-05-06 04:52:00,
2013-05-06 00:53:00,52.5,48.1,29.71,NNW,344,0.0,0.0,85,0.16,RA,SCT,0.14,WeatherDisplay:10.37,2013-05-06 04:53:00,
2013-05-06 00:54:00,52.5,48.1,29.71,NNW,344,0.0,0.0,85,0.16,RA,SCT,0.14,WeatherDisplay:10.37,2013-05-06 04:54:00,
2013-05-06 00:57:00,52.5,48.1,29.71,NNW,344,0.0,0.0,85,0.16,RA,SCT,0.14,WeatherDisplay:10.37,2013-05-06 04:57:00,
2013-05-06 00:58:00,52.3,47.9,29.71,NNW,344,0.0,0.0,85,0.15,RA,SCT,0.14,WeatherDisplay:10.37,2013-05-06 04:58:00,
2013-05-06 00:59:00,52.3,47.9,29.71,NNW,344,0.0,0.0,85,0.16,RA,SCT,0.15,WeatherDisplay:10.37,2013-05-06 04:59:00,
2013-05-06 01:00:00,52.3,47.9,29.71,NNW,344,0.0,0.0,85,0.16,RA,SCT,0.15,WeatherDisplay:10.37,2013-05-06 05:00:00,
2013-05-06 01:02:00,52.3,47.9,29.71,NNW,347,0.0,0.0,85,0.15,RA,SCT,0.15,WeatherDisplay:10.37,2013-05-06 05:02:00,
2013-05-06 01:04:00,52.3,48.2,29.71,NE,43,0.0,0.0,86,0.15,RA,SCT,0.15,WeatherDisplay:10.37,2013-05-06 05:04:00,
2013-05-06 01:05:00,52.3,48.2,29.71,NE,43,0.0,0.0,86,0.15,RA,SCT,0.15,WeatherDisplay:10.37,2013-05-06 05:05:00,
2013-05-06 01:06:00,52.3,48.2,29.71,NE,44,0.0,0.0,86,0.14,RA,SCT,0.15,WeatherDisplay:10.37,2013-05-06 05:06:00,
2013-05-06 01:07:00,52.3,48.2,29.71,NE,44,0.0,0.0,86,0.15,RA,SCT,0.16,WeatherDisplay:10.37,2013-05-06 05:07:00,
2013-05-06 01:08:00,52.3,48.2,29.71,NE,52,0.0,0.0,86,0.15,RA,SCT,0.16,WeatherDisplay:10.37,2013-05-06 05:08:00,
2013-05-06 01:12:00,52.3,48.2,29.70,NE,53,0.0,0.0,86,0.15,RA,SCT,0.17,WeatherDisplay:10.37,2013-05-06 05:12:00,
2013-05-06 01:14:00,52.3,48.2,29.70,NE,53,0.0,0.0,86,0.14,RA,SCT,0.17,WeatherDisplay:10.37,2013-05-06 05:14:00,
2013-05-06 01:15:00,52.3,48.2,29.70,NE,53,0.0,0.0,86,0.14,RA,SCT,0.17,WeatherDisplay:10.37,2013-05-06 05:15:00,
2013-05-06 01:17:00,52.3,48.2,29.70,NE,53,0.0,0.0,86,0.14,RA,SCT,0.18,WeatherDisplay:10.37,2013-05-06 05:17:00,
2013-05-06 01:18:00,52.3,48.2,29.69,NE,53,0.0,0.0,86,0.13,RA,SCT,0.18,WeatherDisplay:10.37,2013-05-06 05:18:00,
2013-05-06 01:19:00,52.3,48.2,29.69,NE,53,0.0,0.0,86,0.13,RA,SCT,0.18,WeatherDisplay:10.37,2013-05-06 05:19:00,
2013-05-06 01:20:00,52.3,48.2,29.69,NE,53,0.0,0.0,86,0.13,RA,SCT,0.18,WeatherDisplay:10.37,2013-05-06 05:20:00,
2013-05-06 01:22:00,52.3,48.2,29.70,NE,53,0.0,0.0,86,0.13,RA,SCT,0.19,WeatherDisplay:10.37,2013-05-06 05:22:00,
2013-05-06 01:24:00,52.3,48.2,29.70,NE,53,0.0,0.0,86,0.12,RA,SCT,0.19,WeatherDisplay:10.37,2013-05-06 05:24:00,
2013-05-06 01:25:00,52.3,48.2,29.70,NE,53,0.0,0.0,86,0.12,RA,SCT,0.19,WeatherDisplay:10.37,2013-05-06 05:25:00,
2013-05-06 01:28:00,52.2,48.1,29.70,NE,53,0.0,0.0,86,0.11,RA,SCT,0.19,WeatherDisplay:10.37,2013-05-06 05:28:00,
2013-05-06 01:29:00,52.2,48.1,29.70,ENE,58,3.0,3.0,86,0.11,RA,SCT,0.19,WeatherDisplay:10.37,2013-05-06 05:29:00,
2013-05-06 01:32:00,52.2,48.1,29.70,ENE,65,3.5,3.5,86,0.10,,SCT,0.19,WeatherDisplay:10.37,2013-05-06 05:32:00,
2013-05-06 01:34:00,52.2,48.1,29.70,ENE,65,3.5,3.5,86,0.10,RA,SCT,0.20,WeatherDisplay:10.37,2013-05-06 05:34:00,
2013-05-06 01:36:00,52.2,48.4,29.70,ENE,65,0.0,0.0,87,0.10,RA,SCT,0.20,WeatherDisplay:10.37,2013-05-06 05:36:00,
2013-05-06 01:37:00,52.2,48.4,29.70,ENE,65,0.0,0.0,87,0.09,RA,SCT,0.20,WeatherDisplay:10.37,2013-05-06 05:37:00,
2013-05-06 01:39:00,52.2,48.1,29.70,ENE,65,0.0,0.0,86,0.09,RA,SCT,0.20,WeatherDisplay:10.37,2013-05-06 05:39:00,
2013-05-06 01:40:00,52.2,48.4,29.69,ENE,65,0.0,0.0,87,0.09,RA,SCT,0.20,WeatherDisplay:10.37,2013-05-06 05:40:00,
2013-05-06 01:42:00,52.2,48.4,29.70,East,82,3.5,3.5,87,0.09,RA,SCT,0.20,WeatherDisplay:10.37,2013-05-06 05:42:00,
2013-05-06 01:43:00,52.2,48.4,29.70,East,81,3.5,3.5,87,0.08,RA,SCT,0.20,WeatherDisplay:10.37,2013-05-06 05:43:00,
2013-05-06 01:47:00,52.3,48.5,29.69,East,82,1.1,0.0,87,0.08,RA,SCT,0.21,WeatherDisplay:10.37,2013-05-06 05:47:00,
2013-05-06 01:48:00,52.3,48.5,29.69,East,82,0.0,0.0,87,0.08,RA,SCT,0.21,WeatherDisplay:10.37,2013-05-06 05:48:00,
2013-05-06 01:49:00,52.2,48.4,29.70,East,81,0.0,0.0,87,0.08,RA,SCT,0.21,WeatherDisplay:10.37,2013-05-06 05:49:00,
2013-05-06 01:51:00,52.2,48.4,29.70,East,82,0.0,0.0,87,0.08,RA,SCT,0.21,WeatherDisplay:10.37,2013-05-06 05:51:00,
2013-05-06 01:53:00,52.2,48.4,29.69,East,82,0.0,0.0,87,0.08,RA,SCT,0.22,WeatherDisplay:10.37,2013-05-06 05:53:00,
2013-05-06 01:54:00,52.2,48.4,29.69,East,82,0.0,0.0,87,0.08,RA,SCT,0.22,WeatherDisplay:10.37,2013-05-06 05:54:00,
2013-05-06 01:55:00,52.2,48.4,29.69,East,82,0.0,0.0,87,0.08,RA,SCT,0.22,WeatherDisplay:10.37,2013-05-06 05:55:00,
2013-05-06 01:56:00,52.2,48.4,29.69,East,82,0.0,0.0,87,0.08,RA,SCT,0.22,WeatherDisplay:10.37,2013-05-06 05:56:00,
2013-05-06 01:58:00,52.2,48.4,29.69,East,82,0.0,0.0,87,0.08,RA,SCT,0.22,WeatherDisplay:10.37,2013-05-06 05:58:00,
2013-05-06 01:59:00,52.2,48.4,29.69,East,82,0.0,0.0,87,0.08,RA,SCT,0.23,WeatherDisplay:10.37,2013-05-06 05:59:00,
2013-05-06 02:03:00,52.2,48.4,29.69,East,81,0.0,0.0,87,0.08,RA,SCT,0.23,WeatherDisplay:10.37,2013-05-06 06:03:00,
2013-05-06 02:04:00,52.2,48.4,29.69,East,82,0.0,0.0,87,0.08,RA,SCT,0.23,WeatherDisplay:10.37,2013-05-06 06:04:00,
2013-05-06 02:06:00,52.2,48.4,29.69,East,82,0.0,0.0,87,0.08,RA,SCT,0.23,WeatherDisplay:10.37,2013-05-06 06:06:00,
2013-05-06 02:07:00,52.2,48.4,29.69,East,82,0.0,0.0,87,0.07,RA,SCT,0.23,WeatherDisplay:10.37,2013-05-06 06:07:00,
2013-05-06 02:09:00,52.2,48.4,29.69,East,82,0.0,0.0,87,0.08,RA,SCT,0.24,WeatherDisplay:10.37,2013-05-06 06:09:00,
2013-05-06 02:10:00,52.2,48.4,29.69,East,82,0.0,0.0,87,0.08,RA,SCT,0.24,WeatherDisplay:10.37,2013-05-06 06:10:00,
2013-05-06 02:11:00,52.2,48.4,29.69,East,81,0.0,0.0,87,0.07,RA,SCT,0.24,WeatherDisplay:10.37,2013-05-06 06:11:00,
2013-05-06 02:12:00,52.2,48.4,29.69,East,82,0.0,0.0,87,0.07,RA,SCT,0.24,WeatherDisplay:10.37,2013-05-06 06:12:00,
2013-05-06 02:15:00,52.2,48.4,29.69,East,82,0.0,0.0,87,0.08,RA,SCT,0.25,WeatherDisplay:10.37,2013-05-06 06:15:00,
2013-05-06 02:18:00,52.2,48.4,29.69,East,82,0.0,0.0,87,0.07,RA,SCT,0.25,WeatherDisplay:10.37,2013-05-06 06:18:00,
2013-05-06 02:19:00,52.2,48.4,29.69,East,82,0.0,0.0,87,0.07,RA,SCT,0.25,WeatherDisplay:10.37,2013-05-06 06:19:00,
2013-05-06 02:20:00,52.2,48.4,29.69,East,82,0.0,0.0,87,0.07,RA,SCT,0.26,WeatherDisplay:10.37,2013-05-06 06:20:00,
2013-05-06 02:21:00,52.2,48.4,29.69,East,82,0.0,0.0,87,0.07,RA,SCT,0.26,WeatherDisplay:10.37,2013-05-06 06:21:00,
2013-05-06 02:24:00,52.2,48.4,29.69,East,82,0.0,0.0,87,0.08,RA,SCT,0.27,WeatherDisplay:10.37,2013-05-06 06:24:00,
2013-05-06 02:25:00,52.2,48.4,29.70,East,82,0.0,0.0,87,0.08,RA,SCT,0.27,WeatherDisplay:10.37,2013-05-06 06:25:00,
2013-05-06 02:27:00,52.0,48.3,29.69,East,81,0.0,0.0,87,0.09,RA,SCT,0.28,WeatherDisplay:10.37,2013-05-06 06:27:00,
2013-05-06 02:30:00,52.2,48.4,29.69,East,82,0.0,0.0,87,0.10,RA,SCT,0.29,WeatherDisplay:10.37,2013-05-06 06:30:00,
2013-05-06 02:32:00,52.2,48.4,29.69,East,81,0.0,0.0,87,0.11,RA,SCT,0.30,WeatherDisplay:10.37,2013-05-06 06:32:00,
2013-05-06 02:33:00,52.2,48.4,29.69,East,82,0.0,0.0,87,0.11,RA,SCT,0.30,WeatherDisplay:10.37,2013-05-06 06:33:00,
2013-05-06 02:35:00,52.2,48.4,29.69,East,82,0.0,0.0,87,0.11,RA,SCT,0.31,WeatherDisplay:10.37,2013-05-06 06:35:00,
2013-05-06 02:37:00,52.2,48.4,29.69,East,82,2.3,2.3,87,0.11,RA,SCT,0.31,WeatherDisplay:10.37,2013-05-06 06:37:00,
2013-05-06 02:40:00,52.2,48.4,29.69,East,81,0.0,0.0,87,0.11,RA,SCT,0.31,WeatherDisplay:10.37,2013-05-06 06:40:00,
2013-05-06 02:42:00,52.2,48.4,29.69,East,82,0.0,0.0,87,0.11,RA,SCT,0.31,WeatherDisplay:10.37,2013-05-06 06:42:00,
2013-05-06 02:43:00,52.2,48.4,29.69,East,82,0.0,0.0,87,0.11,RA,SCT,0.31,WeatherDisplay:10.37,2013-05-06 06:43:00,
2013-05-06 02:45:00,52.2,48.4,29.68,East,81,0.0,0.0,87,0.10,,SCT,0.32,WeatherDisplay:10.37,2013-05-06 06:45:00,
2013-05-06 02:47:00,52.2,48.4,29.68,East,82,0.0,0.0,87,0.11,RA,SCT,0.32,WeatherDisplay:10.37,2013-05-06 06:47:00,
2013-05-06 02:49:00,52.2,48.4,29.68,ENE,78,5.8,5.8,87,0.11,RA,SCT,0.32,WeatherDisplay:10.37,2013-05-06 06:49:00,
2013-05-06 02:50:00,52.2,48.4,29.68,ENE,78,5.8,5.8,87,0.11,RA,SCT,0.32,WeatherDisplay:10.37,2013-05-06 06:50:00,
2013-05-06 02:51:00,52.2,48.8,29.68,ENE,78,3.5,3.5,88,0.11,RA,SCT,0.32,WeatherDisplay:10.37,2013-05-06 06:51:00,
2013-05-06 02:52:00,52.2,48.8,29.68,ENE,78,6.9,6.9,88,0.10,RA,SCT,0.32,WeatherDisplay:10.37,2013-05-06 06:52:00,
2013-05-06 02:56:00,52.3,48.9,29.68,NE,51,9.2,9.2,88,0.10,,SCT,0.32,WeatherDisplay:10.37,2013-05-06 06:56:00,
2013-05-06 02:57:00,52.5,49.0,29.67,ENE,70,8.1,8.1,88,0.10,,SCT,0.32,WeatherDisplay:10.37,2013-05-06 06:57:00,
2013-05-06 02:59:00,52.5,49.0,29.67,ENE,67,8.1,8.1,88,0.09,,SCT,0.32,WeatherDisplay:10.37,2013-05-06 06:59:00,
2013-05-06 03:01:00,52.6,49.1,29.67,ENE,73,6.9,6.9,88,0.09,,SCT,0.32,WeatherDisplay:10.37,2013-05-06 07:01:00,
2013-05-06 03:02:00,52.6,49.1,29.67,ENE,74,4.6,4.6,88,0.09,,SCT,0.32,WeatherDisplay:10.37,2013-05-06 07:02:00,
2013-05-06 03:05:00,52.6,49.1,29.67,ENE,74,0.0,0.0,88,0.09,,SCT,0.32,WeatherDisplay:10.37,2013-05-06 07:05:00,
2013-05-06 03:07:00,52.6,49.1,29.67,ENE,74,0.0,0.0,88,0.09,,SCT,0.32,WeatherDisplay:10.37,2013-05-06 07:07:00,
2013-05-06 03:08:00,52.6,49.1,29.67,ENE,74,0.0,0.0,88,0.08,,SCT,0.32,WeatherDisplay:10.37,2013-05-06 07:08:00,
2013-05-06 03:10:00,52.6,49.1,29.67,ENE,74,0.0,0.0,88,0.08,,SCT,0.32,WeatherDisplay:10.37,2013-05-06 07:10:00,
2013-05-06 03:12:00,52.6,49.1,29.67,ENE,74,0.0,0.0,88,0.08,,SCT,0.32,WeatherDisplay:10.37,2013-05-06 07:12:00,
2013-05-06 03:13:00,52.6,49.1,29.67,ENE,74,0.0,0.0,88,0.08,,SCT,0.32,WeatherDisplay:10.37,2013-05-06 07:13:00,
2013-05-06 03:15:00,52.5,49.0,29.67,ENE,74,0.0,0.0,88,0.07,,SCT,0.32,WeatherDisplay:10.37,2013-05-06 07:15:00,
2013-05-06 03:16:00,52.5,49.0,29.67,ENE,74,0.0,0.0,88,0.07,,SCT,0.32,WeatherDisplay:10.37,2013-05-06 07:16:00,
2013-05-06 03:17:00,52.5,49.0,29.67,ENE,74,0.0,0.0,88,0.07,,SCT,0.32,WeatherDisplay:10.37,2013-05-06 07:17:00,
2013-05-06 03:20:00,52.5,49.0,29.67,ENE,74,0.0,0.0,88,0.07,,SCT,0.32,WeatherDisplay:10.37,2013-05-06 07:20:00,
2013-05-06 03:21:00,52.5,49.0,29.67,ENE,74,0.0,0.0,88,0.06,,SCT,0.32,WeatherDisplay:10.37,2013-05-06 07:21:00,
2013-05-06 03:22:00,52.5,49.0,29.67,ENE,74,0.0,0.0,88,0.06,,SCT,0.32,WeatherDisplay:10.37,2013-05-06 07:22:00,
2013-05-06 03:25:00,52.5,49.0,29.67,ENE,74,0.0,0.0,88,0.05,,SCT,0.32,WeatherDisplay:10.37,2013-05-06 07:25:00,
2013-05-06 03:26:00,52.3,48.9,29.67,ENE,74,0.0,0.0,88,0.05,,SCT,0.32,WeatherDisplay:10.37,2013-05-06 07:26:00,
2013-05-06 03:27:00,52.3,48.9,29.67,ENE,74,0.0,0.0,88,0.04,,SCT,0.32,WeatherDisplay:10.37,2013-05-06 07:27:00,
2013-05-06 03:30:00,52.3,48.5,29.67,ENE,74,0.0,0.0,87,0.03,,SCT,0.32,WeatherDisplay:10.37,2013-05-06 07:30:00,
2013-05-06 03:33:00,52.3,48.9,29.67,ENE,74,0.0,0.0,88,0.02,,SCT,0.32,WeatherDisplay:10.37,2013-05-06 07:33:00,
2013-05-06 03:34:00,52.3,48.9,29.67,ENE,74,0.0,0.0,88,0.01,,SCT,0.32,WeatherDisplay:10.37,2013-05-06 07:34:00,
2013-05-06 03:35:00,52.3,48.9,29.67,ENE,74,0.0,0.0,88,0.01,,SCT,0.32,WeatherDisplay:10.37,2013-05-06 07:35:00,
2013-05-06 03:36:00,52.3,48.9,29.67,ENE,74,0.0,0.0,88,0.01,,SCT,0.32,WeatherDisplay:10.37,2013-05-06 07:36:00,
2013-05-06 03:38:00,52.3,48.5,29.67,ENE,74,0.0,0.0,87,0.01,,SCT,0.32,WeatherDisplay:10.37,2013-05-06 07:38:00,
2013-05-06 03:40:00,52.3,48.9,29.67,ENE,74,0.0,0.0,88,0.01,,SCT,0.32,WeatherDisplay:10.37,2013-05-06 07:40:00,
2013-05-06 03:42:00,52.3,48.9,29.67,ENE,74,0.0,0.0,88,0.01,,SCT,0.32,WeatherDisplay:10.37,2013-05-06 07:42:00,
2013-05-06 03:43:00,52.3,48.5,29.67,ENE,74,0.0,0.0,87,0.01,,SCT,0.32,WeatherDisplay:10.37,2013-05-06 07:43:00,
2013-05-06 03:46:00,52.3,48.5,29.68,ENE,74,0.0,0.0,87,0.00,,SCT,0.32,WeatherDisplay:10.37,2013-05-06 07:46:00,
2013-05-06 03:49:00,52.2,48.4,29.68,ENE,74,0.0,0.0,87,0.00,,SCT,0.32,WeatherDisplay:10.37,2013-05-06 07:49:00,
2013-05-06 03:51:00,52.2,48.8,29.68,ENE,74,0.0,0.0,88,0.00,,SCT,0.32,WeatherDisplay:10.37,2013-05-06 07:51:00,
2013-05-06 03:53:00,52.2,48.4,29.68,ENE,74,0.0,0.0,87,0.00,,SCT,0.32,WeatherDisplay:10.37,2013-05-06 07:53:00,
2013-05-06 03:55:00,52.2,48.4,29.68,ENE,74,0.0,0.0,87,0.00,,SCT,0.32,WeatherDisplay:10.37,2013-05-06 07:55:00,
2013-05-06 03:56:00,52.2,48.4,29.68,ENE,74,0.0,0.0,87,0.00,,SCT,0.32,WeatherDisplay:10.37,2013-05-06 07:56:00,
2013-05-06 03:58:00,52.0,48.3,29.68,ENE,74,0.0,0.0,87,0.00,,SCT,0.32,WeatherDisplay:10.37,2013-05-06 07:58:00,
2013-05-06 04:00:00,52.0,48.3,29.68,ENE,74,0.0,0.0,87,0.00,,SCT,0.32,WeatherDisplay:10.37,2013-05-06 08:00:00,
2013-05-06 04:01:00,52.0,48.3,29.68,ENE,74,0.0,0.0,87,0.00,,SCT,0.32,WeatherDisplay:10.37,2013-05-06 08:01:00,
2013-05-06 04:02:00,52.0,48.3,29.69,ENE,74,0.0,0.0,87,0.00,,SCT,0.32,WeatherDisplay:10.37,2013-05-06 08:02:00,
2013-05-06 04:03:00,52.0,48.3,29.69,ENE,74,0.0,0.0,87,0.00,,SCT,0.32,WeatherDisplay:10.37,2013-05-06 08:03:00,
2013-05-06 04:05:00,52.0,48.3,29.69,ENE,74,0.0,0.0,87,0.00,,SCT,0.32,WeatherDisplay:10.37,2013-05-06 08:05:00,
2013-05-06 04:07:00,51.9,48.2,29.69,ENE,74,4.6,4.6,87,0.00,,SCT,0.32,WeatherDisplay:10.37,2013-05-06 08:07:00,
2013-05-06 04:08:00,51.9,48.2,29.69,ENE,74,3.5,3.5,87,0.00,,SCT,0.32,WeatherDisplay:10.37,2013-05-06 08:08:00,
2013-05-06 04:09:00,51.9,48.2,29.69,ENE,74,5.8,5.8,87,0.00,,SCT,0.32,WeatherDisplay:10.37,2013-05-06 08:09:00,
2013-05-06 04:11:00,51.9,48.2,29.69,WSW,246,4.6,4.6,87,0.00,,SCT,0.32,WeatherDisplay:10.37,2013-05-06 08:11:00,
2013-05-06 04:12:00,51.9,48.5,29.69,WSW,238,5.8,5.8,88,0.00,,SCT,0.32,WeatherDisplay:10.37,2013-05-06 08:12:00,
2013-05-06 04:13:00,52.0,48.6,29.69,WSW,249,9.2,9.2,88,0.00,,SCT,0.32,WeatherDisplay:10.37,2013-05-06 08:13:00,
2013-05-06 04:16:00,52.2,48.8,29.69,West,259,11.5,11.5,88,0.00,,SCT,0.32,WeatherDisplay:10.37,2013-05-06 08:16:00,
2013-05-06 04:18:00,52.3,48.9,29.69,West,270,11.5,11.5,88,0.00,,SCT,0.32,WeatherDisplay:10.37,2013-05-06 08:18:00,
2013-05-06 04:21:00,52.5,49.0,29.69,WSW,242,13.8,13.8,88,0.00,,SCT,0.32,WeatherDisplay:10.37,2013-05-06 08:21:00,
2013-05-06 04:23:00,52.5,49.0,29.69,WSW,257,10.4,10.4,88,0.00,,SCT,0.32,WeatherDisplay:10.37,2013-05-06 08:23:00,
2013-05-06 04:25:00,52.3,48.9,29.69,West,261,15.0,15.0,88,0.00,,SCT,0.32,WeatherDisplay:10.37,2013-05-06 08:25:00,
2013-05-06 04:27:00,52.2,48.8,29.69,SW,235,11.5,11.5,88,0.00,,SCT,0.32,WeatherDisplay:10.37,2013-05-06 08:27:00,
2013-05-06 04:28:00,52.0,48.6,29.69,WSW,258,11.0,11.0,88,0.00,,SCT,0.32,WeatherDisplay:10.37,2013-05-06 08:28:00,
2013-05-06 04:29:00,52.0,48.6,29.69,WSW,257,12.7,12.7,88,0.00,,SCT,0.32,WeatherDisplay:10.37,2013-05-06 08:29:00,
2013-05-06 04:31:00,51.7,48.3,29.69,WSW,240,11.5,11.5,88,0.00,,SCT,0.32,WeatherDisplay:10.37,2013-05-06 08:31:00,
2013-05-06 04:36:00,51.1,47.7,29.70,WSW,245,6.9,6.9,88,0.00,,SCT,0.32,WeatherDisplay:10.37,2013-05-06 08:36:00,
2013-05-06 04:37:00,51.0,47.6,29.70,WSW,240,10.4,10.4,88,0.00,,SCT,0.32,WeatherDisplay:10.37,2013-05-06 08:37:00,
2013-05-06 04:38:00,51.0,47.6,29.70,West,265,13.0,13.0,88,0.00,,SCT,0.32,WeatherDisplay:10.37,2013-05-06 08:38:00,
2013-05-06 04:40:00,50.8,47.4,29.70,WSW,239,12.7,12.7,88,0.00,,SCT,0.32,WeatherDisplay:10.37,2013-05-06 08:40:00,
2013-05-06 04:42:00,50.5,47.1,29.70,WSW,247,9.2,9.2,88,0.00,,SCT,0.32,WeatherDisplay:10.37,2013-05-06 08:42:00,
2013-05-06 04:43:00,50.5,47.1,29.71,SW,216,6.0,6.0,88,0.00,,SCT,0.32,WeatherDisplay:10.37,2013-05-06 08:43:00,
2013-05-06 04:46:00,50.4,47.0,29.71,West,259,6.9,6.9,88,0.00,,SCT,0.32,WeatherDisplay:10.37,2013-05-06 08:46:00,
2013-05-06 04:47:00,50.4,47.0,29.71,WSW,253,6.9,6.9,88,0.00,,SCT,0.32,WeatherDisplay:10.37,2013-05-06 08:47:00,
2013-05-06 04:48:00,50.2,46.8,29.71,West,267,9.0,9.0,88,0.00,,SCT,0.32,WeatherDisplay:10.37,2013-05-06 08:48:00,
2013-05-06 04:51:00,50.2,46.8,29.71,WSW,250,3.5,3.5,88,0.00,,SCT,0.32,WeatherDisplay:10.37,2013-05-06 08:51:00,
2013-05-06 04:52:00,50.1,46.7,29.71,WSW,241,4.6,4.6,88,0.00,,SCT,0.32,WeatherDisplay:10.37,2013-05-06 08:52:00,
2013-05-06 04:54:00,50.1,46.7,29.71,West,263,5.8,5.8,88,0.00,,SCT,0.32,WeatherDisplay:10.37,2013-05-06 08:54:00,
2013-05-06 04:58:00,49.9,46.5,29.71,SSW,213,5.8,5.8,88,0.00,,SCT,0.32,WeatherDisplay:10.37,2013-05-06 08:58:00,
2013-05-06 04:59:00,49.9,46.5,29.71,SSW,213,4.6,4.6,88,0.00,,SCT,0.32,WeatherDisplay:10.37,2013-05-06 08:59:00,
2013-05-06 05:00:00,49.9,46.5,29.71,SW,214,3.5,3.5,88,0.00,,SCT,0.32,WeatherDisplay:10.37,2013-05-06 09:00:00,
2013-05-06 05:02:00,49.9,46.5,29.71,SW,214,1.1,1.1,88,0.00,,SCT,0.32,WeatherDisplay:10.37,2013-05-06 09:02:00,
2013-05-06 05:06:00,49.9,46.5,29.71,South,188,6.9,6.9,88,0.00,,SCT,0.32,WeatherDisplay:10.37,2013-05-06 09:06:00,
2013-05-06 05:07:00,49.8,46.4,29.71,South,188,6.9,6.9,88,0.00,,SCT,0.32,WeatherDisplay:10.37,2013-05-06 09:07:00,
2013-05-06 05:11:00,49.8,46.4,29.71,South,188,3.5,3.5,88,0.00,,SCT,0.32,WeatherDisplay:10.37,2013-05-06 09:11:00,
2013-05-06 05:12:00,49.8,46.4,29.71,South,188,4.6,4.6,88,0.00,,SCT,0.32,WeatherDisplay:10.37,2013-05-06 09:12:00,
2013-05-06 05:13:00,49.8,46.4,29.71,South,188,3.5,3.5,88,0.00,,SCT,0.32,WeatherDisplay:10.37,2013-05-06 09:13:00,
2013-05-06 05:15:00,49.6,46.2,29.71,South,188,4.6,4.6,88,0.00,,SCT,0.32,WeatherDisplay:10.37,2013-05-06 09:15:00,
2013-05-06 05:17:00,49.6,46.2,29.71,South,188,4.6,4.6,88,0.00,,SCT,0.32,WeatherDisplay:10.37,2013-05-06 09:17:00,
2013-05-06 05:19:00,49.6,46.2,29.71,South,188,3.5,3.5,88,0.00,,SCT,0.32,WeatherDisplay:10.37,2013-05-06 09:19:00,
2013-05-06 05:20:00,49.6,46.2,29.71,South,188,3.5,0.0,88,0.00,,SCT,0.32,WeatherDisplay:10.37,2013-05-06 09:20:00,
2013-05-06 05:21:00,49.6,46.2,29.71,South,188,0.0,0.0,88,0.00,,SCT,0.32,WeatherDisplay:10.37,2013-05-06 09:21:00,
2013-05-06 05:22:00,49.6,46.2,29.72,South,188,6.0,6.0,88,0.00,,SCT,0.32,WeatherDisplay:10.37,2013-05-06 09:22:00,
2013-05-06 05:25:00,49.6,46.2,29.72,South,188,0.0,0.0,88,0.00,,SCT,0.32,WeatherDisplay:10.37,2013-05-06 09:25:00,
2013-05-06 05:26:00,49.6,46.2,29.72,South,188,0.0,0.0,88,0.00,,SCT,0.32,WeatherDisplay:10.37,2013-05-06 09:26:00,
2013-05-06 05:28:00,49.5,46.1,29.72,South,188,0.0,0.0,88,0.00,,SCT,0.32,WeatherDisplay:10.37,2013-05-06 09:28:00,
2013-05-06 05:31:00,49.5,46.1,29.72,South,188,4.6,4.6,88,0.00,,SCT,0.32,WeatherDisplay:10.37,2013-05-06 09:31:00,
2013-05-06 05:32:00,49.5,46.1,29.72,South,188,3.5,3.5,88,0.00,,SCT,0.32,WeatherDisplay:10.37,2013-05-06 09:32:00,
2013-05-06 05:34:00,49.5,46.1,29.72,South,188,3.5,3.5,88,0.00,,SCT,0.32,WeatherDisplay:10.37,2013-05-06 09:34:00,
2013-05-06 05:36:00,49.5,46.1,29.72,South,188,1.1,0.0,88,0.00,,SCT,0.32,WeatherDisplay:10.37,2013-05-06 09:36:00,
2013-05-06 05:37:00,49.5,46.1,29.72,South,188,0.0,0.0,88,0.00,,SCT,0.32,WeatherDisplay:10.37,2013-05-06 09:37:00,
2013-05-06 05:40:00,49.5,46.1,29.72,South,188,0.0,0.0,88,0.00,,SCT,0.33,WeatherDisplay:10.37,2013-05-06 09:40:00,
2013-05-06 05:41:00,49.5,46.1,29.72,South,188,0.0,0.0,88,0.01,RA,SCT,0.33,WeatherDisplay:10.37,2013-05-06 09:41:00,
2013-05-06 05:42:00,49.5,46.1,29.72,South,188,0.0,0.0,88,0.01,RA,SCT,0.33,WeatherDisplay:10.37,2013-05-06 09:42:00,
2013-05-06 05:43:00,49.5,46.1,29.72,South,188,0.0,0.0,88,0.01,RA,SCT,0.33,WeatherDisplay:10.37,2013-05-06 09:43:00,
2013-05-06 05:47:00,49.4,46.0,29.72,South,188,0.0,0.0,88,0.01,RA,SCT,0.33,WeatherDisplay:10.37,2013-05-06 09:47:00,
2013-05-06 05:48:00,49.4,46.0,29.72,South,188,0.0,0.0,88,0.01,RA,SCT,0.33,WeatherDisplay:10.37,2013-05-06 09:48:00,
2013-05-06 05:50:00,49.4,46.0,29.72,South,188,0.0,0.0,88,0.02,RA,SCT,0.34,WeatherDisplay:10.37,2013-05-06 09:50:00,
2013-05-06 05:53:00,49.4,46.0,29.72,South,188,0.0,0.0,88,0.02,RA,SCT,0.34,WeatherDisplay:10.37,2013-05-06 09:53:00,
2013-05-06 05:54:00,49.4,46.0,29.72,South,188,0.0,0.0,88,0.02,RA,SCT,0.34,WeatherDisplay:10.37,2013-05-06 09:54:00,
2013-05-06 05:55:00,49.4,46.0,29.72,South,188,0.0,0.0,88,0.02,RA,SCT,0.34,WeatherDisplay:10.37,2013-05-06 09:55:00,
2013-05-06 05:59:00,49.4,46.0,29.72,South,188,0.0,0.0,88,0.02,,SCT,0.34,WeatherDisplay:10.37,2013-05-06 09:59:00,
2013-05-06 06:00:00,49.4,46.0,29.72,South,188,0.0,0.0,88,0.02,,SCT,0.34,WeatherDisplay:10.37,2013-05-06 10:00:00,
2013-05-06 06:02:00,49.4,46.0,29.72,South,188,0.0,0.0,88,0.02,,SCT,0.34,WeatherDisplay:10.37,2013-05-06 10:02:00,
2013-05-06 06:04:00,49.4,46.0,29.72,South,188,0.0,0.0,88,0.03,RA,SCT,0.35,WeatherDisplay:10.37,2013-05-06 10:04:00,
2013-05-06 06:06:00,49.2,45.8,29.72,South,188,0.0,0.0,88,0.03,RA,SCT,0.35,WeatherDisplay:10.37,2013-05-06 10:06:00,
2013-05-06 06:07:00,49.2,45.8,29.72,South,188,0.0,0.0,88,0.03,RA,SCT,0.35,WeatherDisplay:10.37,2013-05-06 10:07:00,
2013-05-06 06:09:00,49.2,45.8,29.72,South,188,0.0,0.0,88,0.03,RA,SCT,0.35,WeatherDisplay:10.37,2013-05-06 10:09:00,
2013-05-06 06:10:00,49.2,45.8,29.72,South,188,0.0,0.0,88,0.03,RA,SCT,0.35,WeatherDisplay:10.37,2013-05-06 10:10:00,
2013-05-06 06:11:00,49.2,45.8,29.72,South,188,0.0,0.0,88,0.03,RA,SCT,0.35,WeatherDisplay:10.37,2013-05-06 10:11:00,
2013-05-06 06:15:00,49.2,45.8,29.72,South,188,0.0,0.0,88,0.03,,SCT,0.35,WeatherDisplay:10.37,2013-05-06 10:15:00,
2013-05-06 06:16:00,49.2,45.8,29.72,South,188,0.0,0.0,88,0.03,,SCT,0.35,WeatherDisplay:10.37,2013-05-06 10:16:00,
2013-05-06 06:17:00,49.2,45.8,29.73,South,188,0.0,0.0,88,0.03,,SCT,0.35,WeatherDisplay:10.37,2013-05-06 10:17:00,
2013-05-06 06:18:00,49.2,45.8,29.73,South,188,0.0,0.0,88,0.03,,SCT,0.35,WeatherDisplay:10.37,2013-05-06 10:18:00,
2013-05-06 06:20:00,49.2,45.8,29.72,South,188,0.0,0.0,88,0.03,,SCT,0.35,WeatherDisplay:10.37,2013-05-06 10:20:00,
2013-05-06 06:21:00,49.2,45.8,29.72,South,188,0.0,0.0,88,0.03,,SCT,0.35,WeatherDisplay:10.37,2013-05-06 10:21:00,
2013-05-06 06:23:00,49.2,45.8,29.72,South,188,0.0,0.0,88,0.03,,SCT,0.35,WeatherDisplay:10.37,2013-05-06 10:23:00,
2013-05-06 06:24:00,49.2,45.8,29.72,South,188,0.0,0.0,88,0.03,,SCT,0.35,WeatherDisplay:10.37,2013-05-06 10:24:00,
2013-05-06 06:25:00,49.2,45.8,29.72,South,188,0.0,0.0,88,0.03,,SCT,0.35,WeatherDisplay:10.37,2013-05-06 10:25:00,
2013-05-06 06:30:00,49.2,45.8,29.72,South,188,0.0,0.0,88,0.03,,SCT,0.35,WeatherDisplay:10.37,2013-05-06 10:30:00,
2013-05-06 06:31:00,49.2,45.8,29.72,South,188,0.0,0.0,88,0.03,,SCT,0.35,WeatherDisplay:10.37,2013-05-06 10:31:00,
2013-05-06 06:33:00,49.2,45.8,29.72,South,188,0.0,0.0,88,0.03,,SCT,0.35,WeatherDisplay:10.37,2013-05-06 10:33:00,
2013-05-06 06:34:00,49.2,45.8,29.72,South,188,0.0,0.0,88,0.03,,SCT,0.35,WeatherDisplay:10.37,2013-05-06 10:34:00,
2013-05-06 06:36:00,49.2,45.8,29.72,South,188,0.0,0.0,88,0.03,,SCT,0.35,WeatherDisplay:10.37,2013-05-06 10:36:00,
2013-05-06 06:38:00,49.2,45.8,29.72,South,188,0.0,0.0,88,0.03,,SCT,0.35,WeatherDisplay:10.37,2013-05-06 10:38:00,
2013-05-06 06:40:00,49.2,45.8,29.72,South,188,0.0,0.0,88,0.03,,SCT,0.35,WeatherDisplay:10.37,2013-05-06 10:40:00,
2013-05-06 06:42:00,49.2,45.8,29.72,South,188,0.0,0.0,88,0.02,,SCT,0.35,WeatherDisplay:10.37,2013-05-06 10:42:00,
2013-05-06 06:43:00,49.2,45.8,29.72,South,188,0.0,0.0,88,0.02,,SCT,0.35,WeatherDisplay:10.37,2013-05-06 10:43:00,
2013-05-06 06:45:00,49.2,45.8,29.72,South,188,0.0,0.0,88,0.02,,SCT,0.35,WeatherDisplay:10.37,2013-05-06 10:45:00,
2013-05-06 06:46:00,49.2,45.8,29.72,South,188,0.0,0.0,88,0.02,,SCT,0.35,WeatherDisplay:10.37,2013-05-06 10:46:00,
2013-05-06 06:47:00,49.2,45.8,29.72,South,188,0.0,0.0,88,0.02,,SCT,0.35,WeatherDisplay:10.37,2013-05-06 10:47:00,
2013-05-06 06:48:00,49.2,45.8,29.72,South,188,0.0,0.0,88,0.02,,SCT,0.35,WeatherDisplay:10.37,2013-05-06 10:48:00,
2013-05-06 06:50:00,49.2,45.8,29.71,South,188,0.0,0.0,88,0.01,,SCT,0.35,WeatherDisplay:10.37,2013-05-06 10:50:00,
2013-05-06 06:52:00,49.2,45.8,29.71,South,188,0.0,0.0,88,0.01,,SCT,0.35,WeatherDisplay:10.37,2013-05-06 10:52:00,
2013-05-06 06:53:00,49.2,45.8,29.71,South,188,0.0,0.0,88,0.01,,SCT,0.35,WeatherDisplay:10.37,2013-05-06 10:53:00,
2013-05-06 06:55:00,49.2,45.8,29.71,South,188,0.0,0.0,88,0.01,,SCT,0.35,WeatherDisplay:10.37,2013-05-06 10:55:00,
2013-05-06 06:56:00,49.2,45.8,29.71,South,188,0.0,0.0,88,0.01,,SCT,0.35,WeatherDisplay:10.37,2013-05-06 10:56:00,
2013-05-06 06:59:00,49.2,45.8,29.72,South,188,0.0,0.0,88,0.01,,SCT,0.35,WeatherDisplay:10.37,2013-05-06 10:59:00,
2013-05-06 07:00:00,49.2,45.8,29.72,South,188,0.0,0.0,88,0.01,,SCT,0.35,WeatherDisplay:10.37,2013-05-06 11:00:00,
2013-05-06 07:02:00,49.2,45.8,29.72,South,188,0.0,0.0,88,0.01,,SCT,0.35,WeatherDisplay:10.37,2013-05-06 11:02:00,
2013-05-06 07:04:00,49.2,45.8,29.72,South,188,0.0,0.0,88,0.00,,SCT,0.35,WeatherDisplay:10.37,2013-05-06 11:04:00,
2013-05-06 07:08:00,49.2,45.8,29.72,South,188,0.0,0.0,88,0.00,,SCT,0.35,WeatherDisplay:10.37,2013-05-06 11:08:00,
2013-05-06 07:09:00,49.2,45.8,29.72,South,188,0.0,0.0,88,0.00,,SCT,0.35,WeatherDisplay:10.37,2013-05-06 11:09:00,
2013-05-06 07:11:00,49.2,45.8,29.73,South,188,0.0,0.0,88,0.00,,SCT,0.35,WeatherDisplay:10.37,2013-05-06 11:11:00,
2013-05-06 07:14:00,49.4,46.0,29.73,South,188,0.0,0.0,88,0.00,,SCT,0.35,WeatherDisplay:10.37,2013-05-06 11:14:00,
2013-05-06 07:16:00,49.4,46.0,29.73,South,188,0.0,0.0,88,0.00,,SCT,0.35,WeatherDisplay:10.37,2013-05-06 11:16:00,
2013-05-06 07:17:00,49.4,46.0,29.73,South,188,0.0,0.0,88,0.00,,SCT,0.35,WeatherDisplay:10.37,2013-05-06 11:17:00,
2013-05-06 07:20:00,49.4,46.0,29.73,South,188,0.0,0.0,88,0.00,,SCT,0.35,WeatherDisplay:10.37,2013-05-06 11:20:00,
2013-05-06 07:22:00,49.4,46.0,29.73,WSW,257,0.0,0.0,88,0.00,,SCT,0.35,WeatherDisplay:10.37,2013-05-06 11:22:00,
2013-05-06 07:23:00,49.4,46.0,29.73,WSW,257,0.0,0.0,88,0.00,,SCT,0.35,WeatherDisplay:10.37,2013-05-06 11:23:00,
2013-05-06 07:26:00,49.5,46.1,29.73,WSW,257,0.0,0.0,88,0.00,,SCT,0.35,WeatherDisplay:10.37,2013-05-06 11:26:00,
2013-05-06 07:28:00,49.5,46.1,29.73,WSW,257,0.0,0.0,88,0.00,,SCT,0.35,WeatherDisplay:10.37,2013-05-06 11:28:00,
2013-05-06 07:31:00,49.6,46.2,29.73,WSW,257,0.0,0.0,88,0.00,,SCT,0.35,WeatherDisplay:10.37,2013-05-06 11:31:00,
2013-05-06 07:34:00,49.6,46.2,29.73,WSW,257,0.0,0.0,88,0.00,,SCT,0.35,WeatherDisplay:10.37,2013-05-06 11:34:00,
2013-05-06 07:36:00,49.6,46.2,29.73,NNE,13,4.0,4.0,88,0.00,,SCT,0.35,WeatherDisplay:10.37,2013-05-06 11:36:00,
2013-05-06 07:38:00,49.6,46.2,29.73,NNE,13,3.5,3.5,88,0.00,,SCT,0.35,WeatherDisplay:10.37,2013-05-06 11:38:00,
2013-05-06 07:39:00,49.6,46.2,29.73,NNE,22,0.0,0.0,88,0.00,,SCT,0.35,WeatherDisplay:10.37,2013-05-06 11:39:00,
2013-05-06 07:41:00,49.6,46.2,29.73,NE,50,3.5,3.5,88,0.00,,SCT,0.35,WeatherDisplay:10.37,2013-05-06 11:41:00,
2013-05-06 07:42:00,49.6,46.2,29.73,NE,50,3.5,3.5,88,0.00,,SCT,0.35,WeatherDisplay:10.37,2013-05-06 11:42:00,
2013-05-06 07:43:00,49.6,46.2,29.73,NE,50,0.0,0.0,88,0.00,,SCT,0.35,WeatherDisplay:10.37,2013-05-06 11:43:00,
2013-05-06 07:44:00,49.6,46.2,29.73,NE,50,0.0,0.0,88,0.00,,SCT,0.35,WeatherDisplay:10.37,2013-05-06 11:44:00,
2013-05-06 07:46:00,49.6,46.2,29.73,NE,50,0.0,0.0,88,0.00,,SCT,0.35,WeatherDisplay:10.37,2013-05-06 11:46:00,
2013-05-06 07:47:00,49.6,46.2,29.73,NE,50,0.0,0.0,88,0.00,,SCT,0.35,WeatherDisplay:10.37,2013-05-06 11:47:00,
2013-05-06 07:49:00,49.6,46.2,29.73,NE,54,4.0,4.0,88,0.00,,SCT,0.35,WeatherDisplay:10.37,2013-05-06 11:49:00,
2013-05-06 07:51:00,49.6,46.2,29.73,ENE,60,4.0,4.0,88,0.00,,SCT,0.35,WeatherDisplay:10.37,2013-05-06 11:51:00,
2013-05-06 07:52:00,49.6,46.2,29.74,ENE,66,4.0,4.0,88,0.00,,SCT,0.35,WeatherDisplay:10.37,2013-05-06 11:52:00,
2013-05-06 07:54:00,49.6,46.5,29.74,ENE,66,3.5,3.5,89,0.00,,SCT,0.35,WeatherDisplay:10.37,2013-05-06 11:54:00,
2013-05-06 07:55:00,49.8,46.7,29.74,ENE,66,3.5,3.5,89,0.00,,SCT,0.35,WeatherDisplay:10.37,2013-05-06 11:55:00,
2013-05-06 07:57:00,49.8,46.7,29.73,ENE,66,4.0,4.0,89,0.00,,SCT,0.35,WeatherDisplay:10.37,2013-05-06 11:57:00,
2013-05-06 07:59:00,49.8,46.7,29.74,ENE,66,5.0,5.0,89,0.00,,SCT,0.35,WeatherDisplay:10.37,2013-05-06 11:59:00,
2013-05-06 08:00:00,49.8,46.7,29.74,ENE,67,4.6,4.6,89,0.00,,SCT,0.35,WeatherDisplay:10.37,2013-05-06 12:00:00,
2013-05-06 08:01:00,49.8,46.7,29.74,ENE,67,3.5,3.5,89,0.00,,SCT,0.35,WeatherDisplay:10.37,2013-05-06 12:01:00,
2013-05-06 08:02:00,49.8,46.7,29.74,ENE,67,4.0,4.0,89,0.00,,SCT,0.35,WeatherDisplay:10.37,2013-05-06 12:02:00,
2013-05-06 08:04:00,49.8,46.7,29.74,ENE,71,5.0,5.0,89,0.00,,SCT,0.35,WeatherDisplay:10.37,2013-05-06 12:04:00,
2013-05-06 08:05:00,49.8,46.7,29.74,ENE,71,4.6,4.6,89,0.00,,SCT,0.35,WeatherDisplay:10.37,2013-05-06 12:05:00,
2013-05-06 08:10:00,49.8,46.7,29.74,ENE,72,4.6,4.6,89,0.00,,SCT,0.35,WeatherDisplay:10.37,2013-05-06 12:10:00,
2013-05-06 08:11:00,49.8,46.7,29.74,ENE,72,4.6,4.6,89,0.00,,SCT,0.36,WeatherDisplay:10.37,2013-05-06 12:11:00,
2013-05-06 08:12:00,49.8,46.7,29.74,ENE,71,5.0,5.0,89,0.01,RA,SCT,0.36,WeatherDisplay:10.37,2013-05-06 12:12:00,
2013-05-06 08:15:00,49.8,46.7,29.74,ENE,72,3.5,3.5,89,0.01,RA,SCT,0.36,WeatherDisplay:10.37,2013-05-06 12:15:00,
2013-05-06 08:18:00,49.9,46.8,29.74,NNE,21,7.0,7.0,89,0.01,RA,SCT,0.36,WeatherDisplay:10.37,2013-05-06 12:18:00,
2013-05-06 08:19:00,49.9,46.8,29.73,NNE,21,6.9,6.9,89,0.01,RA,SCT,0.36,WeatherDisplay:10.37,2013-05-06 12:19:00,
2013-05-06 08:20:00,49.9,46.8,29.73,NNE,24,6.9,6.9,89,0.01,RA,SCT,0.36,WeatherDisplay:10.37,2013-05-06 12:20:00,
2013-05-06 08:21:00,49.9,46.8,29.73,NNE,25,6.9,6.9,89,0.01,RA,SCT,0.36,WeatherDisplay:10.37,2013-05-06 12:21:00,
2013-05-06 08:23:00,49.9,46.8,29.74,ENE,71,6.9,6.9,89,0.01,,SCT,0.36,WeatherDisplay:10.37,2013-05-06 12:23:00,
2013-05-06 08:26:00,49.9,46.8,29.73,ENE,71,5.8,5.8,89,0.01,,SCT,0.36,WeatherDisplay:10.37,2013-05-06 12:26:00,
2013-05-06 08:28:00,50.1,47.0,29.73,ENE,71,5.8,5.8,89,0.01,,SCT,0.36,WeatherDisplay:10.37,2013-05-06 12:28:00,
2013-05-06 08:29:00,50.1,47.0,29.73,ENE,71,4.6,4.6,89,0.01,,SCT,0.36,WeatherDisplay:10.37,2013-05-06 12:29:00,
2013-05-06 08:31:00,50.1,47.0,29.73,ENE,71,4.6,4.6,89,0.01,,SCT,0.36,WeatherDisplay:10.37,2013-05-06 12:31:00,
2013-05-06 08:34:00,50.2,47.1,29.73,ENE,71,6.0,6.0,89,0.01,,SCT,0.36,WeatherDisplay:10.37,2013-05-06 12:34:00,
2013-05-06 08:36:00,50.4,47.3,29.73,ENE,71,4.6,4.6,89,0.01,,SCT,0.36,WeatherDisplay:10.37,2013-05-06 12:36:00,
2013-05-06 08:37:00,50.4,47.3,29.73,ENE,65,3.5,3.5,89,0.01,,SCT,0.36,WeatherDisplay:10.37,2013-05-06 12:37:00,
2013-05-06 08:41:00,50.7,47.6,29.73,ENE,68,6.0,6.0,89,0.01,,SCT,0.36,WeatherDisplay:10.37,2013-05-06 12:41:00,
2013-05-06 08:42:00,50.7,47.6,29.73,ENE,68,6.0,6.0,89,0.01,,SCT,0.36,WeatherDisplay:10.37,2013-05-06 12:42:00,
2013-05-06 08:43:00,50.7,47.6,29.73,ENE,75,6.9,6.9,89,0.01,,SCT,0.36,WeatherDisplay:10.37,2013-05-06 12:43:00,
2013-05-06 08:46:00,50.8,47.7,29.73,ENE,75,6.9,6.9,89,0.01,,SCT,0.36,WeatherDisplay:10.37,2013-05-06 12:46:00,
2013-05-06 08:48:00,51.0,47.9,29.73,ENE,74,4.0,4.0,89,0.01,,SCT,0.36,WeatherDisplay:10.37,2013-05-06 12:48:00,
2013-05-06 08:50:00,51.1,48.0,29.73,ENE,75,5.8,5.8,89,0.01,,SCT,0.36,WeatherDisplay:10.37,2013-05-06 12:50:00,
2013-05-06 08:52:00,51.1,48.3,29.73,ENE,74,6.0,6.0,90,0.01,,SCT,0.36,WeatherDisplay:10.37,2013-05-06 12:52:00,
2013-05-06 08:53:00,51.3,48.2,29.73,ENE,74,5.8,5.8,89,0.01,,SCT,0.36,WeatherDisplay:10.37,2013-05-06 12:53:00,
2013-05-06 08:54:00,51.3,48.2,29.73,NE,51,11.5,11.5,89,0.01,,SCT,0.36,WeatherDisplay:10.37,2013-05-06 12:54:00,
2013-05-06 08:56:00,51.3,48.2,29.73,ENE,59,9.2,9.2,89,0.01,,SCT,0.36,WeatherDisplay:10.37,2013-05-06 12:56:00,
2013-05-06 08:57:00,51.4,48.3,29.73,East,86,8.1,8.1,89,0.01,,SCT,0.36,WeatherDisplay:10.37,2013-05-06 12:57:00,
2013-05-06 08:59:00,51.4,48.3,29.73,East,86,4.6,4.6,89,0.01,,SCT,0.36,WeatherDisplay:10.37,2013-05-06 12:59:00,
2013-05-06 09:01:00,51.4,48.3,29.73,East,86,6.0,6.0,89,0.01,,SCT,0.36,WeatherDisplay:10.37,2013-05-06 13:01:00,
2013-05-06 09:04:00,51.4,48.3,29.73,East,85,8.1,8.1,89,0.01,,SCT,0.36,WeatherDisplay:10.37,2013-05-06 13:04:00,
2013-05-06 09:05:00,51.6,48.5,29.73,East,85,8.1,8.1,89,0.01,,SCT,0.36,WeatherDisplay:10.37,2013-05-06 13:05:00,
2013-05-06 09:06:00,51.6,48.5,29.73,East,85,6.0,6.0,89,0.01,,SCT,0.36,WeatherDisplay:10.37,2013-05-06 13:06:00,
2013-05-06 09:07:00,51.6,48.5,29.73,East,85,7.0,7.0,89,0.01,,SCT,0.36,WeatherDisplay:10.37,2013-05-06 13:07:00,
2013-05-06 09:09:00,51.7,48.6,29.73,East,85,6.9,6.9,89,0.01,,SCT,0.36,WeatherDisplay:10.37,2013-05-06 13:09:00,
2013-05-06 09:11:00,51.7,48.6,29.73,East,85,5.8,5.8,89,0.01,,SCT,0.36,WeatherDisplay:10.37,2013-05-06 13:11:00,
2013-05-06 09:12:00,51.9,48.8,29.73,East,85,5.8,5.8,89,0.00,,SCT,0.36,WeatherDisplay:10.37,2013-05-06 13:12:00,
2013-05-06 09:15:00,52.2,49.4,29.73,ENE,63,5.8,5.8,90,0.00,,SCT,0.36,WeatherDisplay:10.37,2013-05-06 13:15:00,
2013-05-06 09:16:00,52.2,49.4,29.73,ENE,63,6.0,6.0,90,0.00,,SCT,0.36,WeatherDisplay:10.37,2013-05-06 13:16:00,
2013-05-06 09:17:00,52.3,49.5,29.73,ENE,63,5.8,5.8,90,0.00,,SCT,0.36,WeatherDisplay:10.37,2013-05-06 13:17:00,
2013-05-06 09:19:00,52.5,49.7,29.73,ENE,78,6.0,6.0,90,0.00,,SCT,0.36,WeatherDisplay:10.37,2013-05-06 13:19:00,
2013-05-06 09:21:00,52.6,49.8,29.73,ENE,78,5.8,5.8,90,0.00,,SCT,0.36,WeatherDisplay:10.37,2013-05-06 13:21:00,
2013-05-06 09:22:00,52.8,49.9,29.73,ENE,78,5.8,5.8,90,0.00,,SCT,0.36,WeatherDisplay:10.37,2013-05-06 13:22:00,
2013-05-06 09:23:00,52.8,49.9,29.73,ENE,77,5.0,5.0,90,0.00,,SCT,0.36,WeatherDisplay:10.37,2013-05-06 13:23:00,
2013-05-06 09:27:00,52.9,49.7,29.73,ENE,78,5.8,5.8,89,0.00,,SCT,0.36,WeatherDisplay:10.37,2013-05-06 13:27:00,
2013-05-06 09:29:00,53.1,50.2,29.73,East,93,6.9,6.9,90,0.00,,SCT,0.36,WeatherDisplay:10.37,2013-05-06 13:29:00,
2013-05-06 09:31:00,53.2,50.3,29.73,East,93,5.0,5.0,90,0.00,,SCT,0.36,WeatherDisplay:10.37,2013-05-06 13:31:00,
2013-05-06 09:32:00,53.2,50.3,29.73,East,93,6.0,6.0,90,0.00,,SCT,0.36,WeatherDisplay:10.37,2013-05-06 13:32:00,
2013-05-06 09:33:00,53.3,50.4,29.73,ENE,74,10.4,10.4,90,0.00,,SCT,0.36,WeatherDisplay:10.37,2013-05-06 13:33:00,
2013-05-06 09:37:00,53.5,50.6,29.73,East,92,9.2,9.2,90,0.00,,SCT,0.36,WeatherDisplay:10.37,2013-05-06 13:37:00,
2013-05-06 09:38:00,53.6,50.7,29.73,East,80,9.2,9.2,90,0.00,,SCT,0.36,WeatherDisplay:10.37,2013-05-06 13:38:00,
2013-05-06 09:41:00,53.8,50.9,29.73,East,80,9.2,9.2,90,0.00,,SCT,0.36,WeatherDisplay:10.37,2013-05-06 13:41:00,
2013-05-06 09:42:00,53.9,51.0,29.73,ENE,58,10.0,10.0,90,0.00,,SCT,0.36,WeatherDisplay:10.37,2013-05-06 13:42:00,
2013-05-06 09:43:00,54.1,51.2,29.73,ENE,66,11.5,11.5,90,0.00,,SCT,0.36,WeatherDisplay:10.37,2013-05-06 13:43:00,
2013-05-06 09:45:00,54.2,51.3,29.73,ENE,67,10.4,10.4,90,0.00,,SCT,0.36,WeatherDisplay:10.37,2013-05-06 13:45:00,
2013-05-06 09:49:00,54.5,51.3,29.73,ENE,69,10.4,10.4,89,0.00,,SCT,0.36,WeatherDisplay:10.37,2013-05-06 13:49:00,
2013-05-06 09:50:00,54.7,51.5,29.73,ENE,69,9.2,9.2,89,0.00,,SCT,0.36,WeatherDisplay:10.37,2013-05-06 13:50:00,
2013-05-06 09:51:00,54.7,51.5,29.72,East,82,9.2,9.2,89,0.00,,SCT,0.36,WeatherDisplay:10.37,2013-05-06 13:51:00,
2013-05-06 09:52:00,54.7,51.5,29.72,East,82,6.9,6.9,89,0.00,,SCT,0.36,WeatherDisplay:10.37,2013-05-06 13:52:00,
2013-05-06 09:54:00,54.8,51.6,29.72,ENE,69,10.4,10.4,89,0.00,,SCT,0.36,WeatherDisplay:10.37,2013-05-06 13:54:00,
2013-05-06 09:55:00,54.8,51.6,29.72,ENE,69,7.0,7.0,89,0.00,,SCT,0.36,WeatherDisplay:10.37,2013-05-06 13:55:00,
2013-05-06 09:56:00,55.0,51.8,29.72,ENE,70,10.4,10.4,89,0.00,,SCT,0.36,WeatherDisplay:10.37,2013-05-06 13:56:00,
2013-05-06 10:01:00,55.1,51.9,29.72,ENE,70,6.9,6.9,89,0.00,,SCT,0.36,WeatherDisplay:10.37,2013-05-06 14:01:00,
2013-05-06 10:03:00,55.3,52.1,29.72,East,91,9.2,9.2,89,0.00,,SCT,0.36,WeatherDisplay:10.37,2013-05-06 14:03:00,
2013-05-06 10:04:00,55.4,52.2,29.72,East,90,9.0,9.0,89,0.00,,SCT,0.36,WeatherDisplay:10.37,2013-05-06 14:04:00,
2013-05-06 10:06:00,55.7,52.5,29.73,East,92,10.4,10.4,89,0.00,,SCT,0.36,WeatherDisplay:10.37,2013-05-06 14:06:00,
2013-05-06 10:07:00,55.7,52.5,29.72,East,86,10.4,10.4,89,0.00,,SCT,0.36,WeatherDisplay:10.37,2013-05-06 14:07:00,
2013-05-06 10:08:00,55.9,52.7,29.72,East,86,10.4,10.4,89,0.00,,SCT,0.36,WeatherDisplay:10.37,2013-05-06 14:08:00,
2013-05-06 10:12:00,56.2,53.0,29.72,East,86,7.0,7.0,89,0.00,,SCT,0.36,WeatherDisplay:10.37,2013-05-06 14:12:00,
2013-05-06 10:13:00,56.2,53.0,29.72,East,86,9.2,9.2,89,0.00,,SCT,0.36,WeatherDisplay:10.37,2013-05-06 14:13:00,
2013-05-06 10:16:00,56.5,53.3,29.72,East,86,5.8,5.8,89,0.00,,SCT,0.36,WeatherDisplay:10.37,2013-05-06 14:16:00,
2013-05-06 10:18:00,56.7,53.5,29.72,ENE,60,9.2,9.2,89,0.00,,SCT,0.36,WeatherDisplay:10.37,2013-05-06 14:18:00,
2013-05-06 10:20:00,56.9,53.4,29.72,ENE,64,6.9,6.9,88,0.00,,SCT,0.36,WeatherDisplay:10.37,2013-05-06 14:20:00,
2013-05-06 10:21:00,56.9,53.4,29.72,ENE,64,7.0,7.0,88,0.00,,SCT,0.36,WeatherDisplay:10.37,2013-05-06 14:21:00,
2013-05-06 10:25:00,57.0,53.5,29.72,ENE,65,3.5,3.5,88,0.00,,SCT,0.36,WeatherDisplay:10.37,2013-05-06 14:25:00,
2013-05-06 10:26:00,57.0,53.5,29.72,ENE,65,1.1,1.1,88,0.00,,SCT,0.36,WeatherDisplay:10.37,2013-05-06 14:26:00,
2013-05-06 10:29:00,57.0,53.5,29.72,ENE,65,1.0,0.0,88,0.00,,SCT,0.36,WeatherDisplay:10.37,2013-05-06 14:29:00,
2013-05-06 10:30:00,57.0,53.5,29.72,ENE,65,1.1,1.1,88,0.00,,SCT,0.36,WeatherDisplay:10.37,2013-05-06 14:30:00,
2013-05-06 10:32:00,57.2,53.7,29.72,ENE,65,0.0,0.0,88,0.00,,SCT,0.36,WeatherDisplay:10.37,2013-05-06 14:32:00,
2013-05-06 10:34:00,57.3,53.8,29.72,ENE,65,0.0,0.0,88,0.00,,SCT,0.36,WeatherDisplay:10.37,2013-05-06 14:34:00,
2013-05-06 10:35:00,57.3,53.8,29.72,ENE,65,0.0,0.0,88,0.00,,SCT,0.36,WeatherDisplay:10.37,2013-05-06 14:35:00,
2013-05-06 10:36:00,57.3,53.8,29.72,ENE,65,0.0,0.0,88,0.00,,SCT,0.36,WeatherDisplay:10.37,2013-05-06 14:36:00,
2013-05-06 10:37:00,57.5,54.0,29.72,ENE,65,0.0,0.0,88,0.00,,SCT,0.36,WeatherDisplay:10.37,2013-05-06 14:37:00,
2013-05-06 10:38:00,57.6,54.1,29.72,ENE,65,0.0,0.0,88,0.00,,SCT,0.36,WeatherDisplay:10.37,2013-05-06 14:38:00,
2013-05-06 10:40:00,57.8,54.3,29.72,ENE,65,0.0,0.0,88,0.00,,SCT,0.36,WeatherDisplay:10.37,2013-05-06 14:40:00,
2013-05-06 10:42:00,57.8,54.3,29.72,ENE,65,0.0,0.0,88,0.00,,SCT,0.36,WeatherDisplay:10.37,2013-05-06 14:42:00,
2013-05-06 10:43:00,58.0,54.5,29.72,ENE,65,1.0,1.0,88,0.00,,SCT,0.36,WeatherDisplay:10.37,2013-05-06 14:43:00,
2013-05-06 10:46:00,58.1,54.6,29.72,ENE,65,6.9,6.9,88,0.00,,SCT,0.36,WeatherDisplay:10.37,2013-05-06 14:46:00,
2013-05-06 10:47:00,58.3,54.8,29.72,ENE,67,6.0,6.0,88,0.00,,SCT,0.36,WeatherDisplay:10.37,2013-05-06 14:47:00,
2013-05-06 10:49:00,58.6,55.1,29.72,ENE,67,3.5,3.5,88,0.00,,SCT,0.36,WeatherDisplay:10.37,2013-05-06 14:49:00,
2013-05-06 10:51:00,58.7,55.2,29.72,ENE,67,2.3,2.3,88,0.00,,SCT,0.36,WeatherDisplay:10.37,2013-05-06 14:51:00,
2013-05-06 10:52:00,58.9,55.4,29.72,ENE,67,5.0,5.0,88,0.00,,SCT,0.36,WeatherDisplay:10.37,2013-05-06 14:52:00,
2013-05-06 10:56:00,59.3,55.4,29.71,ENE,69,10.4,10.4,87,0.00,,SCT,0.36,WeatherDisplay:10.37,2013-05-06 14:56:00,
2013-05-06 10:57:00,59.3,55.4,29.71,ENE,69,9.2,9.2,87,0.00,,SCT,0.36,WeatherDisplay:10.37,2013-05-06 14:57:00,
2013-05-06 10:58:00,59.5,55.6,29.71,ENE,69,6.9,6.9,87,0.00,,SCT,0.36,WeatherDisplay:10.37,2013-05-06 14:58:00,
2013-05-06 10:59:00,59.5,55.6,29.71,ENE,69,11.5,11.5,87,0.00,,SCT,0.36,WeatherDisplay:10.37,2013-05-06 14:59:00,
2013-05-06 11:01:00,59.8,55.9,29.71,ENE,69,9.2,9.2,87,0.00,,SCT,0.36,WeatherDisplay:10.37,2013-05-06 15:01:00,
2013-05-06 11:02:00,59.8,55.9,29.71,ENE,65,9.2,9.2,87,0.00,,SCT,0.36,WeatherDisplay:10.37,2013-05-06 15:02:00,
2013-05-06 11:04:00,60.1,55.9,29.71,ENE,67,8.1,8.1,86,0.00,,SCT,0.36,WeatherDisplay:10.37,2013-05-06 15:04:00,
2013-05-06 11:06:00,60.2,56.0,29.71,ENE,67,5.8,5.8,86,0.00,,SCT,0.36,WeatherDisplay:10.37,2013-05-06 15:06:00,
2013-05-06 11:07:00,60.2,56.0,29.71,ENE,67,6.9,6.9,86,0.00,,SCT,0.36,WeatherDisplay:10.37,2013-05-06 15:07:00,
2013-05-06 11:08:00,60.4,55.9,29.72,ENE,68,5.8,5.8,85,0.00,,SCT,0.36,WeatherDisplay:10.37,2013-05-06 15:08:00,
2013-05-06 11:11:00,60.5,56.0,29.71,ENE,76,5.0,5.0,85,0.00,,SCT,0.36,WeatherDisplay:10.37,2013-05-06 15:11:00,
2013-05-06 11:16:00,60.7,56.2,29.71,ENE,66,9.2,9.2,85,0.00,,SCT,0.36,WeatherDisplay:10.37,2013-05-06 15:16:00,
2013-05-06 11:17:00,60.9,56.0,29.71,ENE,66,4.6,4.6,84,0.00,,SCT,0.36,WeatherDisplay:10.37,2013-05-06 15:17:00,
2013-05-06 11:18:00,60.9,56.4,29.71,ENE,66,0.0,0.0,85,0.00,,SCT,0.36,WeatherDisplay:10.37,2013-05-06 15:18:00,
2013-05-06 11:22:00,61.0,56.1,29.72,ENE,66,2.3,2.3,84,0.00,,SCT,0.36,WeatherDisplay:10.37,2013-05-06 15:22:00,
2013-05-06 11:23:00,61.0,56.1,29.72,ENE,66,2.3,2.3,84,0.00,,SCT,0.36,WeatherDisplay:10.37,2013-05-06 15:23:00,
2013-05-06 11:24:00,61.0,56.1,29.72,ENE,66,1.1,0.0,84,0.00,,SCT,0.36,WeatherDisplay:10.37,2013-05-06 15:24:00,
2013-05-06 11:26:00,61.2,56.3,29.72,ENE,66,0.0,0.0,84,0.00,,SCT,0.36,WeatherDisplay:10.37,2013-05-06 15:26:00,
2013-05-06 11:28:00,61.2,56.3,29.71,ENE,66,0.0,0.0,84,0.00,,SCT,0.36,WeatherDisplay:10.37,2013-05-06 15:28:00,
2013-05-06 11:29:00,61.2,56.3,29.71,ENE,66,0.0,0.0,84,0.00,,SCT,0.36,WeatherDisplay:10.37,2013-05-06 15:29:00,
2013-05-06 11:31:00,61.3,56.4,29.71,ENE,66,1.0,0.0,84,0.00,,SCT,0.36,WeatherDisplay:10.37,2013-05-06 15:31:00,
2013-05-06 11:33:00,61.3,56.4,29.71,ENE,67,0.0,0.0,84,0.00,,SCT,0.36,WeatherDisplay:10.37,2013-05-06 15:33:00,
2013-05-06 11:34:00,61.3,56.4,29.71,ENE,67,0.0,0.0,84,0.00,,SCT,0.36,WeatherDisplay:10.37,2013-05-06 15:34:00,
2013-05-06 11:36:00,61.5,56.6,29.71,ENE,76,0.0,0.0,84,0.00,,SCT,0.36,WeatherDisplay:10.37,2013-05-06 15:36:00,
2013-05-06 11:38:00,61.5,56.6,29.71,ENE,76,0.0,0.0,84,0.00,,SCT,0.36,WeatherDisplay:10.37,2013-05-06 15:38:00,
2013-05-06 11:41:00,61.6,56.7,29.71,ENE,76,0.0,0.0,84,0.00,,SCT,0.36,WeatherDisplay:10.37,2013-05-06 15:41:00,
2013-05-06 11:42:00,61.8,56.6,29.71,ENE,76,5.8,5.8,83,0.00,,SCT,0.36,WeatherDisplay:10.37,2013-05-06 15:42:00,
2013-05-06 11:43:00,61.8,56.6,29.71,ENE,76,3.5,3.5,83,0.00,,SCT,0.36,WeatherDisplay:10.37,2013-05-06 15:43:00,
2013-05-06 11:45:00,61.8,56.6,29.71,ENE,76,1.1,1.1,83,0.00,,SCT,0.36,WeatherDisplay:10.37,2013-05-06 15:45:00,
2013-05-06 11:46:00,61.8,56.2,29.71,ENE,76,7.0,7.0,82,0.00,,SCT,0.36,WeatherDisplay:10.37,2013-05-06 15:46:00,
2013-05-06 11:47:00,61.8,56.2,29.71,ENE,76,6.9,6.9,82,0.00,,SCT,0.36,WeatherDisplay:10.37,2013-05-06 15:47:00,
2013-05-06 11:50:00,61.8,55.9,29.70,ENE,76,2.3,2.3,81,0.00,,SCT,0.36,WeatherDisplay:10.37,2013-05-06 15:50:00,
2013-05-06 11:52:00,61.6,55.7,29.70,ENE,76,1.1,1.1,81,0.00,,SCT,0.36,WeatherDisplay:10.37,2013-05-06 15:52:00,
2013-05-06 11:53:00,61.6,55.7,29.70,ENE,76,1.1,1.1,81,0.00,,SCT,0.36,WeatherDisplay:10.37,2013-05-06 15:53:00,
2013-05-06 11:55:00,61.8,55.9,29.70,ENE,76,1.1,1.1,81,0.00,,SCT,0.36,WeatherDisplay:10.37,2013-05-06 15:55:00,
2013-05-06 11:56:00,61.8,55.9,29.70,ENE,76,1.1,1.1,81,0.00,,SCT,0.36,WeatherDisplay:10.37,2013-05-06 15:56:00,
2013-05-06 11:59:00,62.0,55.4,29.70,ENE,76,0.0,0.0,79,0.00,,SCT,0.36,WeatherDisplay:10.37,2013-05-06 15:59:00,
2013-05-06 12:00:00,62.0,55.4,29.70,ENE,76,0.0,0.0,79,0.00,,SCT,0.36,WeatherDisplay:10.37,2013-05-06 16:00:00,
2013-05-06 12:01:00,62.0,55.8,29.70,ENE,76,0.0,0.0,80,0.00,,SCT,0.36,WeatherDisplay:10.37,2013-05-06 16:01:00,
2013-05-06 12:04:00,62.1,55.9,29.70,ENE,76,0.0,0.0,80,0.00,,SCT,0.36,WeatherDisplay:10.37,2013-05-06 16:04:00,
2013-05-06 12:05:00,62.3,56.4,29.70,ENE,76,0.0,0.0,81,0.00,,SCT,0.36,WeatherDisplay:10.37,2013-05-06 16:05:00,
2013-05-06 12:07:00,62.4,56.1,29.70,ENE,76,1.1,1.1,80,0.00,,SCT,0.36,WeatherDisplay:10.37,2013-05-06 16:07:00,
2013-05-06 12:09:00,62.4,56.1,29.70,ENE,76,1.1,1.1,80,0.00,,SCT,0.36,WeatherDisplay:10.37,2013-05-06 16:09:00,
2013-05-06 12:11:00,62.6,56.3,29.70,ENE,76,1.1,1.1,80,0.00,,SCT,0.36,WeatherDisplay:10.37,2013-05-06 16:11:00,
2013-05-06 12:13:00,62.7,56.1,29.70,ENE,76,0.0,0.0,79,0.00,,SCT,0.36,WeatherDisplay:10.37,2013-05-06 16:13:00,
2013-05-06 12:14:00,62.7,56.4,29.70,ENE,76,0.0,0.0,80,0.00,,SCT,0.36,WeatherDisplay:10.37,2013-05-06 16:14:00,
2013-05-06 12:15:00,62.9,56.6,29.70,ENE,76,0.0,0.0,80,0.00,,SCT,0.36,WeatherDisplay:10.37,2013-05-06 16:15:00,
2013-05-06 12:18:00,63.1,56.5,29.70,ENE,76,1.1,1.1,79,0.00,,SCT,0.36,WeatherDisplay:10.37,2013-05-06 16:18:00,
2013-05-06 12:19:00,63.2,56.6,29.70,ENE,76,1.1,0.0,79,0.00,,SCT,0.36,WeatherDisplay:10.37,2013-05-06 16:19:00,
2013-05-06 12:20:00,63.2,56.6,29.70,ENE,76,0.0,0.0,79,0.00,,SCT,0.36,WeatherDisplay:10.37,2013-05-06 16:20:00,
2013-05-06 12:23:00,63.4,56.4,29.70,ENE,76,0.0,0.0,78,0.00,,SCT,0.36,WeatherDisplay:10.37,2013-05-06 16:23:00,
2013-05-06 12:25:00,63.5,56.2,29.69,ENE,76,1.0,1.0,77,0.00,,SCT,0.36,WeatherDisplay:10.37,2013-05-06 16:25:00,
2013-05-06 12:26:00,63.7,56.4,29.69,ENE,78,1.1,1.1,77,0.00,,SCT,0.36,WeatherDisplay:10.37,2013-05-06 16:26:00,
2013-05-06 12:28:00,63.9,56.2,29.69,ENE,78,3.5,3.5,76,0.00,,SCT,0.36,WeatherDisplay:10.37,2013-05-06 16:28:00,
2013-05-06 12:29:00,63.9,56.2,29.70,ENE,78,3.5,3.5,76,0.00,,SCT,0.36,WeatherDisplay:10.37,2013-05-06 16:29:00,
2013-05-06 12:33:00,64.2,56.8,29.69,ENE,78,0.0,0.0,77,0.00,,SCT,0.36,WeatherDisplay:10.37,2013-05-06 16:33:00,
2013-05-06 12:34:00,64.3,56.9,29.69,ENE,78,1.1,1.1,77,0.00,,SCT,0.36,WeatherDisplay:10.37,2013-05-06 16:34:00,
2013-05-06 12:35:00,64.5,57.1,29.69,ENE,78,0.0,0.0,77,0.00,,SCT,0.36,WeatherDisplay:10.37,2013-05-06 16:35:00,
2013-05-06 12:37:00,64.7,57.3,29.69,ESE,116,1.0,1.0,77,0.00,,SCT,0.36,WeatherDisplay:10.37,2013-05-06 16:37:00,
2013-05-06 12:40:00,64.8,57.4,29.69,ESE,116,0.0,0.0,77,0.00,,SCT,0.36,WeatherDisplay:10.37,2013-05-06 16:40:00,
2013-05-06 12:42:00,65.0,57.2,29.68,ESE,116,1.1,1.1,76,0.00,,SCT,0.36,WeatherDisplay:10.37,2013-05-06 16:42:00,
2013-05-06 12:43:00,65.0,56.9,29.68,ESE,116,1.1,1.1,75,0.00,,SCT,0.36,WeatherDisplay:10.37,2013-05-06 16:43:00,
2013-05-06 12:47:00,65.2,57.4,29.68,ESE,116,0.0,0.0,76,0.00,,SCT,0.36,WeatherDisplay:10.37,2013-05-06 16:47:00,
2013-05-06 12:48:00,65.2,57.4,29.68,ESE,116,1.1,1.1,76,0.00,,SCT,0.36,WeatherDisplay:10.37,2013-05-06 16:48:00,
2013-05-06 12:50:00,65.3,57.5,29.68,SSW,194,2.3,2.3,76,0.00,,SCT,0.36,WeatherDisplay:10.37,2013-05-06 16:50:00,
2013-05-06 12:53:00,65.8,58.0,29.68,SSW,194,0.0,0.0,76,0.00,,SCT,0.36,WeatherDisplay:10.37,2013-05-06 16:53:00,
2013-05-06 12:54:00,66.0,58.2,29.68,SSW,194,0.0,0.0,76,0.00,,SCT,0.36,WeatherDisplay:10.37,2013-05-06 16:54:00,
2013-05-06 12:55:00,66.0,58.2,29.68,SSW,194,0.0,0.0,76,0.00,,SCT,0.36,WeatherDisplay:10.37,2013-05-06 16:55:00,
2013-05-06 12:56:00,66.0,58.2,29.68,SSW,194,2.0,2.0,76,0.00,,SCT,0.36,WeatherDisplay:10.37,2013-05-06 16:56:00,
2013-05-06 12:58:00,66.1,58.3,29.68,SSW,194,2.3,2.3,76,0.00,,SCT,0.36,WeatherDisplay:10.37,2013-05-06 16:58:00,
2013-05-06 12:59:00,66.1,57.9,29.68,SSW,196,3.0,3.0,75,0.00,,SCT,0.36,WeatherDisplay:10.37,2013-05-06 16:59:00,
2013-05-06 13:01:00,66.1,57.9,29.68,SSW,196,3.0,3.0,75,0.00,,SCT,0.36,WeatherDisplay:10.37,2013-05-06 17:01:00,
2013-05-06 13:03:00,66.1,57.6,29.68,SSW,201,2.3,2.3,74,0.00,,SCT,0.36,WeatherDisplay:10.37,2013-05-06 17:03:00,
2013-05-06 13:06:00,66.1,57.6,29.68,SSW,201,1.1,1.1,74,0.00,,SCT,0.36,WeatherDisplay:10.37,2013-05-06 17:06:00,
2013-05-06 13:07:00,66.1,57.9,29.68,SW,217,3.5,3.5,75,0.00,,SCT,0.36,WeatherDisplay:10.37,2013-05-06 17:07:00,
2013-05-06 13:08:00,66.1,57.6,29.68,SW,223,3.5,3.5,74,0.00,,SCT,0.36,WeatherDisplay:10.37,2013-05-06 17:08:00,
2013-05-06 13:09:00,66.0,57.5,29.68,SW,223,2.3,2.3,74,0.00,,SCT,0.36,WeatherDisplay:10.37,2013-05-06 17:09:00,
2013-05-06 13:11:00,66.0,57.8,29.68,WSW,250,1.1,1.3,75,0.00,,SCT,0.36,WeatherDisplay:10.37,2013-05-06 17:11:00,
2013-05-06 13:14:00,65.6,56.7,29.68,WSW,257,3.5,3.5,73,0.00,,SCT,0.36,WeatherDisplay:10.37,2013-05-06 17:14:00,
2013-05-06 13:16:00,65.5,56.6,29.68,WSW,257,2.3,2.3,73,0.00,,SCT,0.36,WeatherDisplay:10.37,2013-05-06 17:16:00,
2013-05-06 13:19:00,65.2,56.3,29.68,West,260,1.1,1.1,73,0.00,,SCT,0.36,WeatherDisplay:10.37,2013-05-06 17:19:00,
2013-05-06 13:21:00,65.2,56.3,29.68,West,259,1.1,0.0,73,0.00,,SCT,0.36,WeatherDisplay:10.37,2013-05-06 17:21:00,
2013-05-06 13:23:00,65.2,56.7,29.68,WSW,256,2.3,2.3,74,0.00,,SCT,0.36,WeatherDisplay:10.37,2013-05-06 17:23:00,
2013-05-06 13:24:00,65.2,56.7,29.68,WSW,256,1.1,1.1,74,0.00,,SCT,0.36,WeatherDisplay:10.37,2013-05-06 17:24:00,
2013-05-06 13:25:00,65.0,56.1,29.68,WSW,256,1.1,0.0,73,0.00,,SCT,0.36,WeatherDisplay:10.37,2013-05-06 17:25:00,
2013-05-06 13:27:00,65.0,56.1,29.68,West,265,2.3,2.3,73,0.00,,SCT,0.36,WeatherDisplay:10.37,2013-05-06 17:27:00,
2013-05-06 13:28:00,65.0,56.1,29.68,West,265,0.0,0.0,73,0.00,,SCT,0.36,WeatherDisplay:10.37,2013-05-06 17:28:00,
2013-05-06 13:29:00,65.0,56.1,29.68,West,265,0.0,0.0,73,0.00,,SCT,0.36,WeatherDisplay:10.37,2013-05-06 17:29:00,
2013-05-06 13:32:00,65.0,56.1,29.68,West,261,4.6,4.6,73,0.00,,SCT,0.36,WeatherDisplay:10.37,2013-05-06 17:32:00,
2013-05-06 13:33:00,65.0,55.8,29.68,West,265,4.6,4.6,72,0.00,,SCT,0.36,WeatherDisplay:10.37,2013-05-06 17:33:00,
2013-05-06 13:35:00,65.0,55.8,29.68,West,265,1.1,1.1,72,0.00,,SCT,0.36,WeatherDisplay:10.37,2013-05-06 17:35:00,
2013-05-06 13:36:00,65.0,55.8,29.67,West,265,1.1,1.1,72,0.00,,SCT,0.36,WeatherDisplay:10.37,2013-05-06 17:36:00,
2013-05-06 13:38:00,65.0,56.1,29.67,West,267,2.3,2.3,73,0.00,,SCT,0.36,WeatherDisplay:10.37,2013-05-06 17:38:00,
2013-05-06 13:39:00,65.0,55.8,29.67,West,267,0.0,0.0,72,0.00,,SCT,0.36,WeatherDisplay:10.37,2013-05-06 17:39:00,
2013-05-06 13:40:00,65.2,56.3,29.67,WNW,287,3.5,3.5,73,0.00,,SCT,0.36,WeatherDisplay:10.37,2013-05-06 17:40:00,
2013-05-06 13:45:00,65.5,55.5,29.67,West,274,3.5,3.5,70,0.00,,SCT,0.36,WeatherDisplay:10.37,2013-05-06 17:45:00,
2013-05-06 13:46:00,65.6,55.9,29.67,WSW,250,4.0,4.0,71,0.00,,SCT,0.36,WeatherDisplay:10.37,2013-05-06 17:46:00,
2013-05-06 13:47:00,65.6,55.9,29.67,West,261,5.0,5.0,71,0.00,,SCT,0.36,WeatherDisplay:10.37,2013-05-06 17:47:00,
2013-05-06 13:49:00,65.6,54.3,29.67,WSW,246,4.6,4.6,67,0.00,,SCT,0.36,WeatherDisplay:10.37,2013-05-06 17:49:00,
2013-05-06 13:51:00,65.6,54.8,29.67,WSW,240,4.6,4.6,68,0.00,,SCT,0.36,WeatherDisplay:10.37,2013-05-06 17:51:00,
2013-05-06 13:52:00,65.5,54.7,29.67,WSW,244,4.6,4.6,68,0.00,,SCT,0.36,WeatherDisplay:10.37,2013-05-06 17:52:00,
2013-05-06 13:54:00,65.5,54.7,29.67,WSW,244,2.3,2.3,68,0.00,,SCT,0.36,WeatherDisplay:10.37,2013-05-06 17:54:00,
2013-05-06 13:55:00,65.5,54.7,29.67,WSW,243,2.3,2.3,68,0.00,,SCT,0.36,WeatherDisplay:10.37,2013-05-06 17:55:00,
2013-05-06 13:57:00,65.5,55.1,29.67,WSW,240,1.1,0.0,69,0.00,,SCT,0.36,WeatherDisplay:10.37,2013-05-06 17:57:00,
2013-05-06 14:00:00,65.5,55.1,29.67,WSW,240,1.1,0.0,69,0.00,,SCT,0.36,WeatherDisplay:10.37,2013-05-06 18:00:00,
2013-05-06 14:01:00,65.5,55.5,29.67,WSW,240,1.1,1.1,70,0.00,,SCT,0.36,WeatherDisplay:10.37,2013-05-06 18:01:00,
2013-05-06 14:02:00,65.5,55.1,29.67,WSW,240,1.1,1.1,69,0.00,,SCT,0.36,WeatherDisplay:10.37,2013-05-06 18:02:00,
2013-05-06 14:03:00,65.5,55.1,29.67,WSW,240,1.1,0.0,69,0.00,,SCT,0.36,WeatherDisplay:10.37,2013-05-06 18:03:00,
2013-05-06 14:05:00,65.6,55.2,29.67,WSW,240,1.1,1.1,69,0.00,,SCT,0.36,WeatherDisplay:10.37,2013-05-06 18:05:00,
2013-05-06 14:06:00,65.6,55.2,29.67,WSW,240,0.0,0.0,69,0.00,,SCT,0.36,WeatherDisplay:10.37,2013-05-06 18:06:00,
2013-05-06 14:08:00,65.6,54.8,29.67,WSW,240,0.0,0.0,68,0.00,,SCT,0.36,WeatherDisplay:10.37,2013-05-06 18:08:00,
2013-05-06 14:11:00,65.8,55.3,29.67,WSW,240,0.0,0.0,69,0.00,,SCT,0.36,WeatherDisplay:10.37,2013-05-06 18:11:00,
2013-05-06 14:12:00,65.8,55.7,29.67,WSW,240,0.0,0.0,70,0.00,,SCT,0.36,WeatherDisplay:10.37,2013-05-06 18:12:00,
2013-05-06 14:15:00,66.0,55.1,29.67,SW,236,0.0,0.0,68,0.00,,SCT,0.36,WeatherDisplay:10.37,2013-05-06 18:15:00,
2013-05-06 14:16:00,66.1,55.6,29.67,SW,236,0.0,0.0,69,0.00,,SCT,0.36,WeatherDisplay:10.37,2013-05-06 18:16:00,
2013-05-06 14:18:00,66.1,54.4,29.67,West,267,0.0,0.0,66,0.00,,SCT,0.36,WeatherDisplay:10.37,2013-05-06 18:18:00,
2013-05-06 14:20:00,66.4,55.5,29.67,West,267,0.0,0.0,68,0.00,,SCT,0.36,WeatherDisplay:10.37,2013-05-06 18:20:00,
2013-05-06 14:21:00,66.4,55.5,29.67,West,267,0.0,0.0,68,0.00,,SCT,0.36,WeatherDisplay:10.37,2013-05-06 18:21:00,
2013-05-06 14:23:00,66.6,55.3,29.66,West,267,0.0,0.0,67,0.00,,SCT,0.36,WeatherDisplay:10.37,2013-05-06 18:23:00,
2013-05-06 14:26:00,66.8,55.1,29.66,West,267,3.5,3.5,66,0.00,,SCT,0.36,WeatherDisplay:10.37,2013-05-06 18:26:00,
2013-05-06 14:28:00,66.9,54.3,29.66,West,267,3.5,3.5,64,0.00,,SCT,0.36,WeatherDisplay:10.37,2013-05-06 18:28:00,
2013-05-06 14:29:00,67.1,54.5,29.66,West,267,3.5,3.5,64,0.00,,SCT,0.36,WeatherDisplay:10.37,2013-05-06 18:29:00,
2013-05-06 14:32:00,67.3,54.3,29.66,West,267,1.1,1.1,63,0.00,,SCT,0.36,WeatherDisplay:10.37,2013-05-06 18:32:00,
2013-05-06 14:33:00,67.3,54.3,29.66,West,267,1.1,1.1,63,0.00,,SCT,0.36,WeatherDisplay:10.37,2013-05-06 18:33:00,
2013-05-06 14:34:00,67.3,54.7,29.66,West,267,0.0,0.0,64,0.00,,SCT,0.36,WeatherDisplay:10.37,2013-05-06 18:34:00,
2013-05-06 14:38:00,67.4,55.2,29.66,West,267,0.0,0.0,65,0.00,,SCT,0.36,WeatherDisplay:10.37,2013-05-06 18:38:00,
2013-05-06 14:39:00,67.4,55.2,29.66,West,267,0.0,0.0,65,0.00,,SCT,0.36,WeatherDisplay:10.37,2013-05-06 18:39:00,
2013-05-06 14:40:00,67.4,55.6,29.66,West,267,0.0,0.0,66,0.00,,SCT,0.36,WeatherDisplay:10.37,2013-05-06 18:40:00,
2013-05-06 14:42:00,67.6,55.8,29.66,West,268,2.0,2.0,66,0.00,,SCT,0.36,WeatherDisplay:10.37,2013-05-06 18:42:00,
2013-05-06 14:43:00,67.6,55.4,29.66,West,268,2.3,2.3,65,0.00,,SCT,0.36,WeatherDisplay:10.37,2013-05-06 18:43:00,
2013-05-06 14:46:00,67.9,55.3,29.66,WSW,248,1.1,1.1,64,0.00,,SCT,0.36,WeatherDisplay:10.37,2013-05-06 18:46:00,
2013-05-06 14:47:00,68.1,55.9,29.66,WSW,248,2.3,2.3,65,0.00,,SCT,0.36,WeatherDisplay:10.37,2013-05-06 18:47:00,
2013-05-06 14:48:00,68.1,55.5,29.66,WSW,248,1.1,0.0,64,0.00,,SCT,0.36,WeatherDisplay:10.37,2013-05-06 18:48:00,
2013-05-06 14:52:00,68.3,54.8,29.66,South,186,8.0,8.0,62,0.00,,SCT,0.36,WeatherDisplay:10.37,2013-05-06 18:52:00,
2013-05-06 14:53:00,68.3,54.8,29.66,SW,234,10.4,10.4,62,0.00,,SCT,0.36,WeatherDisplay:10.37,2013-05-06 18:53:00,
2013-05-06 14:54:00,68.3,54.8,29.66,SW,236,3.5,3.5,62,0.00,,SCT,0.36,WeatherDisplay:10.37,2013-05-06 18:54:00,
2013-05-06 14:56:00,68.3,53.9,29.66,WSW,246,6.9,6.9,60,0.00,,SCT,0.36,WeatherDisplay:10.37,2013-05-06 18:56:00,
2013-05-06 14:58:00,68.3,54.8,29.66,WSW,244,3.0,3.0,62,0.00,,SCT,0.36,WeatherDisplay:10.37,2013-05-06 18:58:00,
2013-05-06 14:59:00,68.3,55.2,29.66,West,267,3.5,3.5,63,0.00,,SCT,0.36,WeatherDisplay:10.37,2013-05-06 18:59:00,
2013-05-06 15:00:00,68.4,54.9,29.66,West,265,3.5,3.5,62,0.00,,SCT,0.36,WeatherDisplay:10.37,2013-05-06 19:00:00,
2013-05-06 15:01:00,68.4,54.0,29.66,WSW,257,5.8,5.8,60,0.00,,SCT,0.36,WeatherDisplay:10.37,2013-05-06 19:01:00,
2013-05-06 15:04:00,68.6,54.2,29.66,West,273,5.0,5.0,60,0.00,,SCT,0.36,WeatherDisplay:10.37,2013-05-06 19:04:00,
2013-05-06 15:05:00,68.6,53.7,29.66,WSW,256,5.8,5.8,59,0.00,,SCT,0.36,WeatherDisplay:10.37,2013-05-06 19:05:00,
2013-05-06 15:06:00,68.6,53.7,29.66,SW,231,5.8,5.8,59,0.00,,SCT,0.36,WeatherDisplay:10.37,2013-05-06 19:06:00,
2013-05-06 15:10:00,68.6,54.2,29.66,West,268,3.5,3.5,60,0.00,,SCT,0.36,WeatherDisplay:10.37,2013-05-06 19:10:00,
2013-05-06 15:11:00,68.4,53.5,29.65,West,268,3.5,3.5,59,0.00,,SCT,0.36,WeatherDisplay:10.37,2013-05-06 19:11:00,
2013-05-06 15:12:00,68.4,53.5,29.65,West,259,7.0,7.0,59,0.00,,SCT,0.36,WeatherDisplay:10.37,2013-05-06 19:12:00,
2013-05-06 15:14:00,68.6,53.7,29.65,SSW,193,9.2,9.2,59,0.00,,SCT,0.36,WeatherDisplay:10.37,2013-05-06 19:14:00,
2013-05-06 15:15:00,68.6,53.7,29.66,SSW,193,3.5,3.5,59,0.00,,SCT,0.36,WeatherDisplay:10.37,2013-05-06 19:15:00,
2013-05-06 15:19:00,68.8,53.9,29.65,SSW,193,0.0,0.0,59,0.00,,SCT,0.36,WeatherDisplay:10.37,2013-05-06 19:19:00,
2013-05-06 15:20:00,68.9,54.0,29.65,SSW,193,0.0,0.0,59,0.00,,SCT,0.36,WeatherDisplay:10.37,2013-05-06 19:20:00,
2013-05-06 15:21:00,68.9,54.0,29.65,SSW,193,0.0,0.0,59,0.00,,SCT,0.36,WeatherDisplay:10.37,2013-05-06 19:21:00,
2013-05-06 15:23:00,68.9,54.0,29.66,SE,142,3.5,3.5,59,0.00,,SCT,0.36,WeatherDisplay:10.37,2013-05-06 19:23:00,
2013-05-06 15:25:00,69.1,53.7,29.66,SE,142,3.5,3.5,58,0.00,,SCT,0.36,WeatherDisplay:10.37,2013-05-06 19:25:00,
2013-05-06 15:26:00,69.1,53.7,29.66,SE,142,2.3,2.3,58,0.00,,SCT,0.36,WeatherDisplay:10.37,2013-05-06 19:26:00,
2013-05-06 15:28:00,69.3,54.4,29.66,SE,142,2.3,2.3,59,0.00,,SCT,0.36,WeatherDisplay:10.37,2013-05-06 19:28:00,
2013-05-06 15:29:00,69.3,54.4,29.66,SE,142,2.3,2.3,59,0.00,,SCT,0.36,WeatherDisplay:10.37,2013-05-06 19:29:00,
2013-05-06 15:31:00,69.3,54.4,29.66,SE,142,2.0,2.0,59,0.00,,SCT,0.36,WeatherDisplay:10.37,2013-05-06 19:31:00,
2013-05-06 15:33:00,69.3,53.9,29.66,SE,142,1.1,1.1,58,0.00,,SCT,0.36,WeatherDisplay:10.37,2013-05-06 19:33:00,
2013-05-06 15:38:00,69.3,53.9,29.66,SE,142,2.3,2.3,58,0.00,,SCT,0.36,WeatherDisplay:10.37,2013-05-06 19:38:00,
2013-05-06 15:39:00,69.3,54.4,29.66,SE,142,1.1,1.1,59,0.00,,SCT,0.36,WeatherDisplay:10.37,2013-05-06 19:39:00,
2013-05-06 15:40:00,69.3,53.9,29.65,SE,142,2.3,2.3,58,0.00,,SCT,0.36,WeatherDisplay:10.37,2013-05-06 19:40:00,
2013-05-06 15:43:00,69.6,54.2,29.65,SE,142,1.0,0.0,58,0.00,,SCT,0.36,WeatherDisplay:10.37,2013-05-06 19:43:00,
2013-05-06 15:45:00,69.6,53.2,29.65,South,182,8.1,8.1,56,0.00,,SCT,0.36,WeatherDisplay:10.37,2013-05-06 19:45:00,
2013-05-06 15:46:00,69.8,52.9,29.65,South,182,5.8,5.8,55,0.00,,SCT,0.36,WeatherDisplay:10.37,2013-05-06 19:46:00,
2013-05-06 15:47:00,69.8,52.4,29.65,South,190,5.8,5.8,54,0.00,,SCT,0.36,WeatherDisplay:10.37,2013-05-06 19:47:00,
2013-05-06 15:49:00,69.8,52.9,29.65,South,190,3.5,0.0,55,0.00,,SCT,0.36,WeatherDisplay:10.37,2013-05-06 19:49:00,
2013-05-06 15:51:00,69.8,53.4,29.65,West,261,6.9,6.9,56,0.00,,SCT,0.36,WeatherDisplay:10.37,2013-05-06 19:51:00,
2013-05-06 15:52:00,69.8,52.4,29.65,WSW,249,6.9,6.9,54,0.00,,SCT,0.36,WeatherDisplay:10.37,2013-05-06 19:52:00,
2013-05-06 15:54:00,69.8,51.9,29.65,West,265,4.0,4.0,53,0.00,,SCT,0.36,WeatherDisplay:10.37,2013-05-06 19:54:00,
2013-05-06 15:57:00,69.8,51.9,29.65,WSW,245,4.6,4.6,53,0.00,,SCT,0.36,WeatherDisplay:10.37,2013-05-06 19:57:00,
2013-05-06 15:58:00,69.8,51.9,29.64,SSW,205,4.6,4.6,53,0.00,,SCT,0.36,WeatherDisplay:10.37,2013-05-06 19:58:00,
2013-05-06 15:59:00,69.8,51.9,29.64,SSW,206,3.5,3.5,53,0.00,,SCT,0.36,WeatherDisplay:10.37,2013-05-06 19:59:00,
2013-05-06 16:01:00,69.8,51.4,29.64,South,190,5.8,5.8,52,0.00,,SCT,0.36,WeatherDisplay:10.37,2013-05-06 20:01:00,
2013-05-06 16:04:00,69.8,51.4,29.64,West,268,6.9,6.9,52,0.00,,SCT,0.36,WeatherDisplay:10.37,2013-05-06 20:04:00,
2013-05-06 16:05:00,69.8,51.9,29.64,West,265,8.1,8.1,53,0.00,,SCT,0.36,WeatherDisplay:10.37,2013-05-06 20:05:00,
2013-05-06 16:08:00,69.8,51.9,29.65,WSW,244,10.4,10.4,53,0.00,,SCT,0.36,WeatherDisplay:10.37,2013-05-06 20:08:00,
2013-05-06 16:09:00,69.8,52.4,29.65,SSW,211,4.6,4.6,54,0.00,,SCT,0.36,WeatherDisplay:10.37,2013-05-06 20:09:00,
2013-05-06 16:11:00,69.8,52.4,29.65,West,259,6.0,6.0,54,0.00,,SCT,0.36,WeatherDisplay:10.37,2013-05-06 20:11:00,
2013-05-06 16:13:00,69.8,51.9,29.65,SW,234,6.9,6.9,53,0.00,,SCT,0.36,WeatherDisplay:10.37,2013-05-06 20:13:00,
2013-05-06 16:14:00,69.8,52.4,29.65,SW,215,3.5,3.5,54,0.00,,SCT,0.36,WeatherDisplay:10.37,2013-05-06 20:14:00,
2013-05-06 16:17:00,69.9,52.5,29.65,SE,135,5.8,5.8,54,0.00,,SCT,0.36,WeatherDisplay:10.37,2013-05-06 20:17:00,
2013-05-06 16:18:00,69.9,51.5,29.65,SSE,154,8.1,8.1,52,0.00,,SCT,0.36,WeatherDisplay:10.37,2013-05-06 20:18:00,
2013-05-06 16:20:00,70.1,52.7,29.65,WSW,238,4.0,4.0,54,0.00,,SCT,0.36,WeatherDisplay:10.37,2013-05-06 20:20:00,
2013-05-06 16:23:00,70.1,52.7,29.65,SW,220,2.3,2.3,54,0.00,,SCT,0.36,WeatherDisplay:10.37,2013-05-06 20:23:00,
2013-05-06 16:25:00,70.3,53.4,29.64,SW,220,0.0,0.0,55,0.00,,SCT,0.36,WeatherDisplay:10.37,2013-05-06 20:25:00,
2013-05-06 16:26:00,70.3,52.9,29.64,WNW,295,3.5,3.5,54,0.00,,SCT,0.36,WeatherDisplay:10.37,2013-05-06 20:26:00,
2013-05-06 16:28:00,70.4,52.4,29.64,SW,230,4.6,4.6,53,0.00,,SCT,0.36,WeatherDisplay:10.37,2013-05-06 20:28:00,
2013-05-06 16:30:00,70.6,52.6,29.64,SSW,198,5.0,5.0,53,0.00,,SCT,0.36,WeatherDisplay:10.37,2013-05-06 20:30:00,
2013-05-06 16:31:00,70.8,52.3,29.64,South,176,5.0,5.0,52,0.00,,SCT,0.36,WeatherDisplay:10.37,2013-05-06 20:31:00,
2013-05-06 16:34:00,70.8,51.8,29.65,SSW,195,8.1,8.1,51,0.00,,SCT,0.36,WeatherDisplay:10.37,2013-05-06 20:34:00,
2013-05-06 16:35:00,70.8,51.8,29.64,SSW,195,4.0,4.0,51,0.00,,SCT,0.36,WeatherDisplay:10.37,2013-05-06 20:35:00,
2013-05-06 16:36:00,70.8,51.2,29.64,SW,222,4.6,4.6,50,0.00,,SCT,0.36,WeatherDisplay:10.37,2013-05-06 20:36:00,
2013-05-06 16:37:00,70.8,51.2,29.65,SW,222,4.6,4.6,50,0.00,,SCT,0.36,WeatherDisplay:10.37,2013-05-06 20:37:00,
2013-05-06 16:38:00,70.8,51.8,29.64,SW,222,2.3,0.0,51,0.00,,SCT,0.36,WeatherDisplay:10.37,2013-05-06 20:38:00,
2013-05-06 16:40:00,70.9,51.9,29.65,SSE,152,9.2,9.2,51,0.00,,SCT,0.36,WeatherDisplay:10.37,2013-05-06 20:40:00,
2013-05-06 16:41:00,70.9,51.9,29.65,ESE,123,9.2,9.2,51,0.00,,SCT,0.36,WeatherDisplay:10.37,2013-05-06 20:41:00,
2013-05-06 16:42:00,70.9,51.9,29.65,East,98,10.4,10.4,51,0.00,,SCT,0.36,WeatherDisplay:10.37,2013-05-06 20:42:00,
2013-05-06 16:47:00,70.9,51.9,29.65,East,84,3.5,3.5,51,0.00,,SCT,0.36,WeatherDisplay:10.37,2013-05-06 20:47:00,
2013-05-06 16:48:00,70.8,51.2,29.65,East,84,3.5,3.5,50,0.00,,SCT,0.36,WeatherDisplay:10.37,2013-05-06 20:48:00,
2013-05-06 16:50:00,70.8,51.2,29.65,East,84,3.5,3.5,50,0.00,,SCT,0.36,WeatherDisplay:10.37,2013-05-06 20:50:00,
2013-05-06 16:52:00,70.6,50.5,29.65,NNE,26,5.8,5.8,49,0.00,,SCT,0.36,WeatherDisplay:10.37,2013-05-06 20:52:00,
2013-05-06 16:53:00,70.6,50.5,29.65,NNE,26,10.4,10.4,49,0.00,,SCT,0.36,WeatherDisplay:10.37,2013-05-06 20:53:00,
2013-05-06 16:54:00,70.4,50.3,29.65,NNE,26,4.0,4.0,49,0.00,,SCT,0.36,WeatherDisplay:10.37,2013-05-06 20:54:00,
2013-05-06 16:55:00,70.4,50.9,29.65,NNE,26,5.8,5.8,50,0.00,,SCT,0.36,WeatherDisplay:10.37,2013-05-06 20:55:00,
2013-05-06 16:58:00,70.3,50.2,29.65,North,350,3.5,3.5,49,0.00,,SCT,0.36,WeatherDisplay:10.37,2013-05-06 20:58:00,
2013-05-06 16:59:00,70.3,50.8,29.65,NNE,17,5.0,5.0,50,0.00,,SCT,0.36,WeatherDisplay:10.37,2013-05-06 20:59:00,
2013-05-06 17:00:00,70.1,50.6,29.65,NNE,15,4.6,4.6,50,0.00,,SCT,0.36,WeatherDisplay:10.37,2013-05-06 21:00:00,
2013-05-06 17:03:00,69.9,50.4,29.65,NNE,15,2.3,2.3,50,0.00,,SCT,0.36,WeatherDisplay:10.37,2013-05-06 21:03:00,
2013-05-06 17:04:00,69.8,50.3,29.65,NNE,15,1.1,1.1,50,0.00,,SCT,0.36,WeatherDisplay:10.37,2013-05-06 21:04:00,
2013-05-06 17:05:00,69.8,50.3,29.65,NNE,15,3.5,3.5,50,0.00,,SCT,0.36,WeatherDisplay:10.37,2013-05-06 21:05:00,
2013-05-06 17:08:00,69.4,48.9,29.65,West,275,11.5,11.5,48,0.00,,SCT,0.36,WeatherDisplay:10.37,2013-05-06 21:08:00,
2013-05-06 17:11:00,68.8,47.7,29.65,WSW,250,11.5,11.5,47,0.00,,SCT,0.36,WeatherDisplay:10.37,2013-05-06 21:11:00,
2013-05-06 17:13:00,68.4,47.9,29.66,WSW,244,6.9,6.9,48,0.00,,SCT,0.36,WeatherDisplay:10.37,2013-05-06 21:13:00,
2013-05-06 17:15:00,68.1,48.8,29.66,WSW,244,3.5,3.5,50,0.00,,SCT,0.36,WeatherDisplay:10.37,2013-05-06 21:15:00,
2013-05-06 17:17:00,67.8,48.5,29.66,WSW,254,3.5,3.5,50,0.00,,SCT,0.36,WeatherDisplay:10.37,2013-05-06 21:17:00,
2013-05-06 17:19:00,67.4,48.1,29.66,WNW,297,3.5,3.5,50,0.00,,SCT,0.36,WeatherDisplay:10.37,2013-05-06 21:19:00,
2013-05-06 17:20:00,67.3,48.0,29.67,West,263,11.5,11.5,50,0.00,,SCT,0.36,WeatherDisplay:10.37,2013-05-06 21:20:00,
2013-05-06 17:23:00,66.9,48.2,29.67,WSW,246,11.5,11.5,51,0.00,,SCT,0.36,WeatherDisplay:10.37,2013-05-06 21:23:00,
2013-05-06 17:25:00,66.8,48.6,29.67,West,273,12.7,12.7,52,0.00,,SCT,0.36,WeatherDisplay:10.37,2013-05-06 21:25:00,
2013-05-06 17:27:00,66.6,48.4,29.67,West,267,13.8,13.8,52,0.00,,SCT,0.36,WeatherDisplay:10.37,2013-05-06 21:27:00,
2013-05-06 17:28:00,66.8,49.1,29.67,West,262,11.5,11.5,53,0.00,,SCT,0.36,WeatherDisplay:10.37,2013-05-06 21:28:00,
2013-05-06 17:29:00,66.8,49.1,29.67,West,281,7.0,7.0,53,0.00,,SCT,0.36,WeatherDisplay:10.37,2013-05-06 21:29:00,
2013-05-06 17:30:00,66.8,49.1,29.67,WNW,286,15.0,15.0,53,0.00,,SCT,0.36,WeatherDisplay:10.37,2013-05-06 21:30:00,
2013-05-06 17:33:00,67.1,50.9,29.67,West,267,15.0,15.0,56,0.00,,SCT,0.36,WeatherDisplay:10.37,2013-05-06 21:33:00,
2013-05-06 17:34:00,67.1,50.9,29.67,SW,234,12.7,12.7,56,0.00,,SCT,0.36,WeatherDisplay:10.37,2013-05-06 21:34:00,
2013-05-06 17:36:00,67.1,51.4,29.67,West,265,12.7,12.7,57,0.00,,SCT,0.36,WeatherDisplay:10.37,2013-05-06 21:36:00,
2013-05-06 17:39:00,66.8,51.1,29.67,West,267,17.3,17.3,57,0.00,,SCT,0.36,WeatherDisplay:10.37,2013-05-06 21:39:00,
2013-05-06 17:41:00,66.6,50.9,29.67,WSW,255,12.7,12.7,57,0.00,,SCT,0.36,WeatherDisplay:10.37,2013-05-06 21:41:00,
2013-05-06 17:45:00,65.8,50.6,29.67,West,261,11.5,11.5,58,0.00,,SCT,0.36,WeatherDisplay:10.37,2013-05-06 21:45:00,
2013-05-06 17:46:00,65.6,50.4,29.67,WSW,257,13.0,13.0,58,0.00,,SCT,0.36,WeatherDisplay:10.37,2013-05-06 21:46:00,
2013-05-06 17:48:00,65.3,50.1,29.67,West,261,11.5,11.5,58,0.00,,SCT,0.36,WeatherDisplay:10.37,2013-05-06 21:48:00,
2013-05-06 17:52:00,64.8,49.7,29.67,SW,225,9.2,9.2,58,0.00,,SCT,0.36,WeatherDisplay:10.37,2013-05-06 21:52:00,
2013-05-06 17:53:00,64.7,50.0,29.68,West,260,11.5,11.5,59,0.00,,SCT,0.36,WeatherDisplay:10.37,2013-05-06 21:53:00,
2013-05-06 17:55:00,64.7,50.5,29.68,West,265,12.0,12.0,60,0.00,,SCT,0.36,WeatherDisplay:10.37,2013-05-06 21:55:00,
2013-05-06 17:57:00,64.8,51.0,29.68,SW,215,9.0,9.0,61,0.00,,SCT,0.36,WeatherDisplay:10.37,2013-05-06 21:57:00,
2013-05-06 18:00:00,65.0,51.2,29.68,West,259,19.6,19.6,61,0.00,,SCT,0.36,WeatherDisplay:10.37,2013-05-06 22:00:00,
2013-05-06 18:01:00,64.8,51.0,29.68,SW,214,18.4,18.4,61,0.00,,SCT,0.36,WeatherDisplay:10.37,2013-05-06 22:01:00,
2013-05-06 18:02:00,64.8,51.0,29.68,WSW,248,15.0,15.0,61,0.00,,SCT,0.36,WeatherDisplay:10.37,2013-05-06 22:02:00,
2013-05-06 18:03:00,64.8,51.0,29.68,WSW,252,12.7,12.7,61,0.00,,SCT,0.36,WeatherDisplay:10.37,2013-05-06 22:03:00,
2013-05-06 18:07:00,64.7,50.9,29.68,WSW,257,11.5,11.5,61,0.00,,SCT,0.36,WeatherDisplay:10.37,2013-05-06 22:07:00,
2013-05-06 18:08:00,64.7,51.4,29.68,WSW,258,9.0,9.0,62,0.00,,SCT,0.36,WeatherDisplay:10.37,2013-05-06 22:08:00,
2013-05-06 18:10:00,64.5,51.2,29.68,SSW,208,11.5,11.5,62,0.00,,SCT,0.36,WeatherDisplay:10.37,2013-05-06 22:10:00,
2013-05-06 18:11:00,64.5,51.2,29.68,WSW,248,16.0,16.0,62,0.00,,SCT,0.36,WeatherDisplay:10.37,2013-05-06 22:11:00,
2013-05-06 18:13:00,64.2,50.9,29.69,WSW,254,12.7,12.7,62,0.00,,SCT,0.36,WeatherDisplay:10.37,2013-05-06 22:13:00,
2013-05-06 18:15:00,64.0,50.7,29.69,SW,232,13.8,13.8,62,0.00,,SCT,0.36,WeatherDisplay:10.37,2013-05-06 22:15:00,
2013-05-06 18:16:00,64.0,50.7,29.69,SW,233,13.8,13.8,62,0.00,,SCT,0.36,WeatherDisplay:10.37,2013-05-06 22:16:00,
2013-05-06 18:17:00,63.9,50.6,29.69,SW,232,16.1,16.1,62,0.00,,SCT,0.36,WeatherDisplay:10.37,2013-05-06 22:17:00,
2013-05-06 18:20:00,63.7,50.4,29.69,WSW,258,16.1,16.1,62,0.00,,SCT,0.36,WeatherDisplay:10.37,2013-05-06 22:20:00,
2013-05-06 18:23:00,63.4,50.1,29.69,WSW,252,11.5,11.5,62,0.00,,SCT,0.36,WeatherDisplay:10.37,2013-05-06 22:23:00,
2013-05-06 18:25:00,63.2,50.4,29.69,West,261,13.8,13.8,63,0.00,,SCT,0.36,WeatherDisplay:10.37,2013-05-06 22:25:00,
2013-05-06 18:28:00,63.1,50.3,29.69,SW,236,13.8,13.8,63,0.00,,SCT,0.36,WeatherDisplay:10.37,2013-05-06 22:28:00,
2013-05-06 18:31:00,62.7,49.9,29.70,WSW,238,11.5,11.5,63,0.00,,SCT,0.36,WeatherDisplay:10.37,2013-05-06 22:31:00,
2013-05-06 18:32:00,62.6,49.8,29.70,SW,235,10.4,10.4,63,0.00,,SCT,0.36,WeatherDisplay:10.37,2013-05-06 22:32:00,
2013-05-06 18:36:00,62.1,49.4,29.71,WSW,249,10.4,10.4,63,0.00,,SCT,0.36,WeatherDisplay:10.37,2013-05-06 22:36:00,
2013-05-06 18:38:00,62.0,49.7,29.71,West,263,11.5,11.5,64,0.00,,SCT,0.36,WeatherDisplay:10.37,2013-05-06 22:38:00,
2013-05-06 18:40:00,61.8,49.5,29.71,SW,228,6.9,6.9,64,0.00,,SCT,0.36,WeatherDisplay:10.37,2013-05-06 22:40:00,
2013-05-06 18:42:00,61.8,49.5,29.71,WSW,248,8.1,8.1,64,0.00,,SCT,0.36,WeatherDisplay:10.37,2013-05-06 22:42:00,
2013-05-06 18:43:00,61.6,49.3,29.71,West,269,6.9,6.9,64,0.00,,SCT,0.36,WeatherDisplay:10.37,2013-05-06 22:43:00,
2013-05-06 18:44:00,61.6,49.3,29.71,WSW,250,5.8,5.8,64,0.00,,SCT,0.36,WeatherDisplay:10.37,2013-05-06 22:44:00,
2013-05-06 18:45:00,61.5,49.6,29.71,West,262,5.8,5.8,65,0.00,,SCT,0.36,WeatherDisplay:10.37,2013-05-06 22:45:00,
2013-05-06 18:47:00,61.3,49.4,29.71,SSW,210,9.2,9.2,65,0.00,,SCT,0.36,WeatherDisplay:10.37,2013-05-06 22:47:00,
2013-05-06 18:48:00,61.3,49.4,29.71,SW,225,5.0,5.0,65,0.00,,SCT,0.36,WeatherDisplay:10.37,2013-05-06 22:48:00,
2013-05-06 18:50:00,61.2,49.3,29.71,SW,229,6.9,6.9,65,0.00,,SCT,0.36,WeatherDisplay:10.37,2013-05-06 22:50:00,
2013-05-06 18:52:00,61.2,49.3,29.71,WSW,240,13.8,13.8,65,0.00,,SCT,0.36,WeatherDisplay:10.37,2013-05-06 22:52:00,
2013-05-06 18:53:00,61.0,49.1,29.71,SW,220,10.4,10.4,65,0.00,,SCT,0.36,WeatherDisplay:10.37,2013-05-06 22:53:00,
2013-05-06 18:57:00,60.9,49.1,29.71,SW,216,6.9,6.9,65,0.00,,SCT,0.36,WeatherDisplay:10.37,2013-05-06 22:57:00,
2013-05-06 18:58:00,60.9,49.1,29.71,WSW,238,5.8,5.8,65,0.00,,SCT,0.36,WeatherDisplay:10.37,2013-05-06 22:58:00,
2013-05-06 18:59:00,60.9,49.1,29.71,WSW,254,10.4,10.4,65,0.00,,SCT,0.36,WeatherDisplay:10.37,2013-05-06 22:59:00,
2013-05-06 19:00:00,60.9,49.1,29.71,West,263,10.4,10.4,65,0.00,,SCT,0.36,WeatherDisplay:10.37,2013-05-06 23:00:00,
2013-05-06 19:02:00,60.9,49.1,29.71,WSW,250,11.5,11.5,65,0.00,,SCT,0.36,WeatherDisplay:10.37,2013-05-06 23:02:00,
2013-05-06 19:04:00,60.7,48.9,29.71,SW,227,11.5,11.5,65,0.00,,SCT,0.36,WeatherDisplay:10.37,2013-05-06 23:04:00,
2013-05-06 19:05:00,60.7,48.9,29.71,SW,234,11.5,11.5,65,0.00,,SCT,0.36,WeatherDisplay:10.37,2013-05-06 23:05:00,
2013-05-06 19:06:00,60.7,48.9,29.71,WSW,257,9.2,9.2,65,0.00,CLR,SCT,0.36,WeatherDisplay:10.37,2013-05-06 23:06:00,
2013-05-06 19:10:00,60.5,48.7,29.72,West,269,9.2,9.2,65,0.00,CLR,SCT,0.36,WeatherDisplay:10.37,2013-05-06 23:10:00,
2013-05-06 19:12:00,60.4,49.0,29.72,WSW,253,6.0,6.0,66,0.00,CLR,SCT,0.36,WeatherDisplay:10.37,2013-05-06 23:12:00,
2013-05-06 19:13:00,60.4,49.0,29.72,WSW,239,8.1,8.1,66,0.00,CLR,SCT,0.36,WeatherDisplay:10.37,2013-05-06 23:13:00,
2013-05-06 19:14:00,60.4,49.0,29.72,WSW,252,7.0,7.0,66,0.00,CLR,SCT,0.36,WeatherDisplay:10.37,2013-05-06 23:14:00,
2013-05-06 19:17:00,60.2,48.8,29.72,SW,220,10.4,10.4,66,0.00,CLR,SCT,0.36,WeatherDisplay:10.37,2013-05-06 23:17:00,
2013-05-06 19:18:00,60.2,48.8,29.72,West,260,6.9,6.9,66,0.00,CLR,SCT,0.36,WeatherDisplay:10.37,2013-05-06 23:18:00,
2013-05-06 19:19:00,60.1,48.7,29.72,WSW,243,8.1,8.1,66,0.00,CLR,SCT,0.36,WeatherDisplay:10.37,2013-05-06 23:19:00,
2013-05-06 19:22:00,60.1,48.7,29.72,WSW,257,7.0,7.0,66,0.00,CLR,SCT,0.36,WeatherDisplay:10.37,2013-05-06 23:22:00,
2013-05-06 19:23:00,59.9,48.5,29.72,West,264,8.1,8.1,66,0.00,CLR,SCT,0.36,WeatherDisplay:10.37,2013-05-06 23:23:00,
2013-05-06 19:25:00,59.9,48.9,29.72,West,271,5.8,5.8,67,0.00,CLR,SCT,0.36,WeatherDisplay:10.37,2013-05-06 23:25:00,
2013-05-06 19:27:00,59.9,48.9,29.72,West,261,3.5,3.5,67,0.00,CLR,SCT,0.36,WeatherDisplay:10.37,2013-05-06 23:27:00,
2013-05-06 19:34:00,59.6,48.6,29.72,West,268,6.9,6.9,67,0.00,CLR,SCT,0.36,WeatherDisplay:10.37,2013-05-06 23:34:00,
2013-05-06 19:35:00,59.5,48.5,29.72,SW,225,4.6,4.6,67,0.00,CLR,SCT,0.36,WeatherDisplay:10.37,2013-05-06 23:35:00,
2013-05-06 19:37:00,59.5,48.5,29.73,WSW,240,4.6,4.6,67,0.00,CLR,SCT,0.36,WeatherDisplay:10.37,2013-05-06 23:37:00,
2013-05-06 19:39:00,59.3,48.3,29.73,SW,223,5.8,5.8,67,0.00,CLR,SCT,0.36,WeatherDisplay:10.37,2013-05-06 23:39:00,
2013-05-06 19:40:00,59.3,48.3,29.73,SW,230,5.8,5.8,67,0.00,CLR,SCT,0.36,WeatherDisplay:10.37,2013-05-06 23:40:00,
2013-05-06 19:43:00,59.3,48.3,29.73,WSW,257,4.6,4.6,67,0.00,CLR,SCT,0.36,WeatherDisplay:10.37,2013-05-06 23:43:00,
2013-05-06 19:46:00,59.2,48.2,29.73,West,269,4.6,4.6,67,0.00,CLR,SCT,0.36,WeatherDisplay:10.37,2013-05-06 23:46:00,
2013-05-06 19:48:00,59.2,48.6,29.73,SW,224,3.5,3.5,68,0.00,CLR,SCT,0.36,WeatherDisplay:10.37,2013-05-06 23:48:00,
2013-05-06 19:50:00,59.0,48.4,29.74,SW,224,2.3,2.3,68,0.00,CLR,SCT,0.36,WeatherDisplay:10.37,2013-05-06 23:50:00,
2013-05-06 19:51:00,59.0,48.4,29.74,SW,225,2.3,2.3,68,0.00,CLR,SCT,0.36,WeatherDisplay:10.37,2013-05-06 23:51:00,
2013-05-06 19:52:00,59.0,48.4,29.74,SW,225,3.5,3.5,68,0.00,CLR,SCT,0.36,WeatherDisplay:10.37,2013-05-06 23:52:00,
2013-05-06 19:56:00,58.9,48.4,29.74,SW,232,3.5,3.5,68,0.00,CLR,SCT,0.36,WeatherDisplay:10.37,2013-05-06 23:56:00,
2013-05-06 19:57:00,58.9,48.4,29.74,SW,233,3.5,3.5,68,0.00,CLR,SCT,0.36,WeatherDisplay:10.37,2013-05-06 23:57:00,
2013-05-06 19:58:00,58.9,48.4,29.74,SW,233,3.5,3.5,68,0.00,CLR,SCT,0.36,WeatherDisplay:10.37,2013-05-06 23:58:00,
2013-05-06 20:00:00,58.7,48.2,29.74,SW,233,3.5,3.5,68,0.00,CLR,SCT,0.36,WeatherDisplay:10.37,2013-05-07 00:00:00,
2013-05-06 20:03:00,58.7,48.2,29.74,SW,233,2.3,2.3,68,0.00,CLR,SCT,0.36,WeatherDisplay:10.37,2013-05-07 00:03:00,
2013-05-06 20:04:00,58.7,48.2,29.74,SW,233,3.5,3.5,68,0.00,CLR,SCT,0.36,WeatherDisplay:10.37,2013-05-07 00:04:00,
2013-05-06 20:05:00,58.6,48.1,29.74,SW,233,2.3,2.3,68,0.00,CLR,SCT,0.36,WeatherDisplay:10.37,2013-05-07 00:05:00,
2013-05-06 20:06:00,58.6,48.1,29.74,SW,233,2.3,2.3,68,0.00,,SCT,0.36,WeatherDisplay:10.37,2013-05-07 00:06:00,
2013-05-06 20:09:00,58.4,47.9,29.74,South,181,2.3,2.3,68,0.00,,SCT,0.36,WeatherDisplay:10.37,2013-05-07 00:09:00,
2013-05-06 20:11:00,58.4,48.3,29.74,South,181,1.1,1.1,69,0.00,,SCT,0.36,WeatherDisplay:10.37,2013-05-07 00:11:00,
2013-05-06 20:12:00,58.4,48.3,29.74,West,267,3.5,3.5,69,0.00,,SCT,0.36,WeatherDisplay:10.37,2013-05-07 00:12:00,
2013-05-06 20:14:00,58.3,48.2,29.74,West,266,3.5,3.5,69,0.00,,SCT,0.36,WeatherDisplay:10.37,2013-05-07 00:14:00,
2013-05-06 20:17:00,58.1,48.0,29.75,West,265,3.5,3.5,69,0.00,,SCT,0.36,WeatherDisplay:10.37,2013-05-07 00:17:00,
2013-05-06 20:19:00,58.1,48.0,29.75,WSW,240,3.5,3.5,69,0.00,,SCT,0.36,WeatherDisplay:10.37,2013-05-07 00:19:00,
2013-05-06 20:20:00,58.1,48.0,29.75,SW,234,3.5,3.5,69,0.00,,SCT,0.36,WeatherDisplay:10.37,2013-05-07 00:20:00,
2013-05-06 20:23:00,58.0,47.9,29.75,SW,235,3.5,3.5,69,0.00,,SCT,0.36,WeatherDisplay:10.37,2013-05-07 00:23:00,
2013-05-06 20:25:00,58.0,47.9,29.75,SW,236,2.3,2.3,69,0.00,,SCT,0.36,WeatherDisplay:10.37,2013-05-07 00:25:00,
2013-05-06 20:27:00,57.8,47.7,29.75,SW,234,4.6,4.6,69,0.00,,SCT,0.36,WeatherDisplay:10.37,2013-05-07 00:27:00,
2013-05-06 20:28:00,57.8,47.7,29.75,WSW,242,6.9,6.9,69,0.00,,SCT,0.36,WeatherDisplay:10.37,2013-05-07 00:28:00,
2013-05-06 20:29:00,57.8,47.7,29.75,WSW,247,4.6,4.6,69,0.00,,SCT,0.36,WeatherDisplay:10.37,2013-05-07 00:29:00,
2013-05-06 20:32:00,57.6,47.5,29.76,SW,220,7.0,7.0,69,0.00,,SCT,0.36,WeatherDisplay:10.37,2013-05-07 00:32:00,
2013-05-06 20:34:00,57.5,47.4,29.76,WSW,248,5.0,5.0,69,0.00,,SCT,0.36,WeatherDisplay:10.37,2013-05-07 00:34:00,
2013-05-06 20:35:00,57.5,47.4,29.76,WSW,246,4.6,4.6,69,0.00,,SCT,0.36,WeatherDisplay:10.37,2013-05-07 00:35:00,
2013-05-06 20:37:00,57.5,47.4,29.76,WSW,247,4.6,4.6,69,0.00,,SCT,0.36,WeatherDisplay:10.37,2013-05-07 00:37:00,
2013-05-06 20:40:00,57.3,47.2,29.76,West,260,4.0,4.0,69,0.00,,SCT,0.36,WeatherDisplay:10.37,2013-05-07 00:40:00,
2013-05-06 20:42:00,57.3,47.2,29.76,WSW,253,4.6,4.6,69,0.00,,SCT,0.36,WeatherDisplay:10.37,2013-05-07 00:42:00,
2013-05-06 20:44:00,57.2,47.1,29.76,WSW,253,2.3,2.3,69,0.00,,SCT,0.36,WeatherDisplay:10.37,2013-05-07 00:44:00,
2013-05-06 20:46:00,57.0,46.9,29.77,WSW,253,2.0,2.0,69,0.00,,SCT,0.36,WeatherDisplay:10.37,2013-05-07 00:46:00,
2013-05-06 20:49:00,57.0,46.9,29.77,WSW,252,1.1,1.1,69,0.00,,SCT,0.36,WeatherDisplay:10.37,2013-05-07 00:49:00,
2013-05-06 20:50:00,56.9,46.8,29.77,WSW,252,1.0,1.0,69,0.00,,SCT,0.36,WeatherDisplay:10.37,2013-05-07 00:50:00,
2013-05-06 20:52:00,56.7,46.6,29.77,WSW,252,2.3,2.3,69,0.00,,SCT,0.36,WeatherDisplay:10.37,2013-05-07 00:52:00,
2013-05-06 20:56:00,56.6,46.9,29.77,WSW,248,1.1,1.1,70,0.00,,SCT,0.36,WeatherDisplay:10.37,2013-05-07 00:56:00,
2013-05-06 20:58:00,56.6,46.9,29.77,WSW,246,3.5,3.5,70,0.00,,SCT,0.36,WeatherDisplay:10.37,2013-05-07 00:58:00,
2013-05-06 20:59:00,56.5,46.8,29.77,WSW,246,1.1,0.0,70,0.00,,SCT,0.36,WeatherDisplay:10.37,2013-05-07 00:59:00,
2013-05-06 21:00:00,56.5,46.8,29.77,WSW,246,0.0,0.0,70,0.00,,SCT,0.36,WeatherDisplay:10.37,2013-05-07 01:00:00,
2013-05-06 21:01:00,56.5,46.8,29.77,WSW,246,2.0,2.0,70,0.00,,SCT,0.36,WeatherDisplay:10.37,2013-05-07 01:01:00,
2013-05-06 21:02:00,56.5,46.8,29.77,WSW,240,3.5,3.5,70,0.00,,SCT,0.36,WeatherDisplay:10.37,2013-05-07 01:02:00,
2013-05-06 21:03:00,56.5,46.8,29.77,WSW,240,3.5,3.5,70,0.00,,SCT,0.36,WeatherDisplay:10.37,2013-05-07 01:03:00,
2013-05-06 21:05:00,56.5,46.8,29.78,SW,229,2.3,2.3,70,0.00,,SCT,0.36,WeatherDisplay:10.37,2013-05-07 01:05:00,
2013-05-06 21:06:00,56.3,46.6,29.77,SW,229,2.3,2.3,70,0.00,,SCT,0.36,WeatherDisplay:10.37,2013-05-07 01:06:00,
2013-05-06 21:07:00,56.3,46.6,29.77,SW,229,0.0,0.0,70,0.00,,SCT,0.36,WeatherDisplay:10.37,2013-05-07 01:07:00,
2013-05-06 21:09:00,56.3,46.6,29.78,SW,229,0.0,0.0,70,0.00,,SCT,0.36,WeatherDisplay:10.37,2013-05-07 01:09:00,
2013-05-06 21:10:00,56.3,46.6,29.78,SW,229,0.0,0.0,70,0.00,,SCT,0.36,WeatherDisplay:10.37,2013-05-07 01:10:00,
2013-05-06 21:14:00,56.3,46.6,29.78,SW,229,0.0,0.0,70,0.00,,SCT,0.36,WeatherDisplay:10.37,2013-05-07 01:14:00,
2013-05-06 21:16:00,56.3,46.6,29.78,SW,229,0.0,0.0,70,0.00,,SCT,0.36,WeatherDisplay:10.37,2013-05-07 01:16:00,
2013-05-06 21:17:00,56.2,46.5,29.78,SW,229,0.0,0.0,70,0.00,,SCT,0.36,WeatherDisplay:10.37,2013-05-07 01:17:00,
2013-05-06 21:18:00,56.2,46.5,29.78,SW,229,0.0,0.0,70,0.00,,SCT,0.36,WeatherDisplay:10.37,2013-05-07 01:18:00,
2013-05-06 21:19:00,56.2,46.5,29.78,SW,229,0.0,0.0,70,0.00,,SCT,0.36,WeatherDisplay:10.37,2013-05-07 01:19:00,
2013-05-06 21:22:00,56.2,46.5,29.78,SW,229,1.1,1.1,70,0.00,,SCT,0.36,WeatherDisplay:10.37,2013-05-07 01:22:00,
2013-05-06 21:23:00,56.2,46.9,29.78,SW,229,1.1,0.0,71,0.00,,SCT,0.36,WeatherDisplay:10.37,2013-05-07 01:23:00,
2013-05-06 21:26:00,56.2,46.9,29.78,SW,229,2.0,2.0,71,0.00,,SCT,0.36,WeatherDisplay:10.37,2013-05-07 01:26:00,
2013-05-06 21:29:00,56.2,46.9,29.79,SW,229,2.3,2.3,71,0.00,,SCT,0.36,WeatherDisplay:10.37,2013-05-07 01:29:00,
2013-05-06 21:31:00,56.2,46.9,29.79,SW,227,3.5,3.5,71,0.00,,SCT,0.36,WeatherDisplay:10.37,2013-05-07 01:31:00,
2013-05-06 21:32:00,56.2,46.9,29.79,SW,227,3.5,3.5,71,0.00,,SCT,0.36,WeatherDisplay:10.37,2013-05-07 01:32:00,
2013-05-06 21:36:00,56.3,47.0,29.79,SW,227,2.3,2.3,71,0.00,,SCT,0.36,WeatherDisplay:10.37,2013-05-07 01:36:00,
2013-05-06 21:37:00,56.3,47.0,29.79,SW,227,2.3,2.3,71,0.00,,SCT,0.36,WeatherDisplay:10.37,2013-05-07 01:37:00,
2013-05-06 21:38:00,56.3,47.0,29.79,SW,227,2.3,2.3,71,0.00,,SCT,0.36,WeatherDisplay:10.37,2013-05-07 01:38:00,
2013-05-06 21:39:00,56.3,47.0,29.79,SW,228,2.3,2.3,71,0.00,,SCT,0.36,WeatherDisplay:10.37,2013-05-07 01:39:00,
2013-05-06 21:41:00,56.3,47.0,29.79,SW,228,3.5,3.5,71,0.00,,SCT,0.36,WeatherDisplay:10.37,2013-05-07 01:41:00,
2013-05-06 21:42:00,56.3,47.0,29.79,SW,228,2.3,2.3,71,0.00,,SCT,0.36,WeatherDisplay:10.37,2013-05-07 01:42:00,
2013-05-06 21:46:00,56.3,47.0,29.80,WSW,241,3.5,3.5,71,0.00,,SCT,0.36,WeatherDisplay:10.37,2013-05-07 01:46:00,
2013-05-06 21:47:00,56.3,47.0,29.80,WSW,241,3.5,3.5,71,0.00,,SCT,0.36,WeatherDisplay:10.37,2013-05-07 01:47:00,
2013-05-06 21:50:00,56.3,47.0,29.80,WSW,241,1.1,1.1,71,0.00,,SCT,0.36,WeatherDisplay:10.37,2013-05-07 01:50:00,
2013-05-06 21:51:00,56.3,47.0,29.80,WSW,241,1.1,0.0,71,0.00,,SCT,0.36,WeatherDisplay:10.37,2013-05-07 01:51:00,
2013-05-06 21:52:00,56.2,46.9,29.80,WSW,241,0.0,0.0,71,0.00,,SCT,0.36,WeatherDisplay:10.37,2013-05-07 01:52:00,
2013-05-06 21:55:00,56.2,46.9,29.80,WSW,241,0.0,0.0,71,0.00,,SCT,0.36,WeatherDisplay:10.37,2013-05-07 01:55:00,
2013-05-06 21:58:00,56.2,46.9,29.80,WSW,241,0.0,0.0,71,0.00,,SCT,0.36,WeatherDisplay:10.37,2013-05-07 01:58:00,
2013-05-06 22:00:00,56.2,46.9,29.80,WSW,241,2.3,2.3,71,0.00,,SCT,0.36,WeatherDisplay:10.37,2013-05-07 02:00:00,
2013-05-06 22:02:00,56.0,46.7,29.80,WSW,241,1.1,1.1,71,0.00,,SCT,0.36,WeatherDisplay:10.37,2013-05-07 02:02:00,
2013-05-06 22:03:00,56.0,46.7,29.80,WSW,241,1.1,1.1,71,0.00,,SCT,0.36,WeatherDisplay:10.37,2013-05-07 02:03:00,
2013-05-06 22:04:00,56.0,46.7,29.80,WSW,241,0.0,0.0,71,0.00,,SCT,0.36,WeatherDisplay:10.37,2013-05-07 02:04:00,
2013-05-06 22:05:00,56.0,46.7,29.80,WSW,241,1.1,1.1,71,0.00,,SCT,0.36,WeatherDisplay:10.37,2013-05-07 02:05:00,
2013-05-06 22:08:00,56.0,46.7,29.80,WSW,242,3.5,3.5,71,0.00,,SCT,0.36,WeatherDisplay:10.37,2013-05-07 02:08:00,
2013-05-06 22:09:00,55.9,46.6,29.80,WSW,242,3.5,3.5,71,0.00,,SCT,0.36,WeatherDisplay:10.37,2013-05-07 02:09:00,
2013-05-06 22:10:00,55.9,46.6,29.80,WSW,242,2.3,2.3,71,0.00,,SCT,0.36,WeatherDisplay:10.37,2013-05-07 02:10:00,
2013-05-06 22:14:00,55.9,47.0,29.80,WSW,242,3.5,3.5,72,0.00,,SCT,0.36,WeatherDisplay:10.37,2013-05-07 02:14:00,
2013-05-06 22:16:00,55.7,46.8,29.80,WSW,242,0.0,0.0,72,0.00,,SCT,0.36,WeatherDisplay:10.37,2013-05-07 02:16:00,
2013-05-06 22:17:00,55.7,46.4,29.80,WSW,242,0.0,0.0,71,0.00,,SCT,0.36,WeatherDisplay:10.37,2013-05-07 02:17:00,
2013-05-06 22:18:00,55.7,46.4,29.80,WSW,242,0.0,0.0,71,0.00,,SCT,0.36,WeatherDisplay:10.37,2013-05-07 02:18:00,
2013-05-06 22:20:00,55.7,46.8,29.80,SW,233,1.1,1.1,72,0.00,,SCT,0.36,WeatherDisplay:10.37,2013-05-07 02:20:00,
2013-05-06 22:23:00,55.7,46.8,29.81,SW,234,0.0,0.0,72,0.00,,SCT,0.36,WeatherDisplay:10.37,2013-05-07 02:23:00,
2013-05-06 22:25:00,55.7,46.8,29.81,SW,234,0.0,0.0,72,0.00,,SCT,0.36,WeatherDisplay:10.37,2013-05-07 02:25:00,
2013-05-06 22:26:00,55.7,46.8,29.81,SW,234,0.0,0.0,72,0.00,,SCT,0.36,WeatherDisplay:10.37,2013-05-07 02:26:00,
2013-05-06 22:27:00,55.7,46.8,29.81,SW,234,0.0,0.0,72,0.00,,SCT,0.36,WeatherDisplay:10.37,2013-05-07 02:27:00,
2013-05-06 22:28:00,55.7,46.8,29.81,SW,234,0.0,0.0,72,0.00,,SCT,0.36,WeatherDisplay:10.37,2013-05-07 02:28:00,
2013-05-06 22:29:00,55.6,46.7,29.81,SW,234,0.0,0.0,72,0.00,,SCT,0.36,WeatherDisplay:10.37,2013-05-07 02:29:00,
2013-05-06 22:33:00,55.6,46.7,29.81,SW,234,0.0,0.0,72,0.00,,SCT,0.36,WeatherDisplay:10.37,2013-05-07 02:33:00,
2013-05-06 22:34:00,55.6,46.7,29.81,SW,234,0.0,0.0,72,0.00,,SCT,0.36,WeatherDisplay:10.37,2013-05-07 02:34:00,
2013-05-06 22:35:00,55.6,46.7,29.81,SW,234,0.0,0.0,72,0.00,,SCT,0.36,WeatherDisplay:10.37,2013-05-07 02:35:00,
2013-05-06 22:38:00,55.6,46.7,29.81,SW,234,0.0,0.0,72,0.00,,SCT,0.36,WeatherDisplay:10.37,2013-05-07 02:38:00,
2013-05-06 22:39:00,55.6,46.7,29.81,SW,234,0.0,0.0,72,0.00,,SCT,0.36,WeatherDisplay:10.37,2013-05-07 02:39:00,
2013-05-06 22:41:00,55.6,46.7,29.81,SW,234,0.0,0.0,72,0.00,,SCT,0.36,WeatherDisplay:10.37,2013-05-07 02:41:00,
2013-05-06 22:43:00,55.6,46.7,29.81,SW,234,0.0,0.0,72,0.00,,SCT,0.36,WeatherDisplay:10.37,2013-05-07 02:43:00,
2013-05-06 22:44:00,55.6,46.7,29.81,SW,234,0.0,0.0,72,0.00,,SCT,0.36,WeatherDisplay:10.37,2013-05-07 02:44:00,
2013-05-06 22:45:00,55.6,46.7,29.81,SW,234,0.0,0.0,72,0.00,,SCT,0.36,WeatherDisplay:10.37,2013-05-07 02:45:00,
2013-05-06 22:47:00,55.6,46.7,29.81,SW,234,0.0,0.0,72,0.00,,SCT,0.36,WeatherDisplay:10.37,2013-05-07 02:47:00,
2013-05-06 22:50:00,55.4,46.5,29.81,SW,229,2.3,2.3,72,0.00,,SCT,0.36,WeatherDisplay:10.37,2013-05-07 02:50:00,
2013-05-06 22:53:00,55.4,46.5,29.81,SW,229,0.0,0.0,72,0.00,,SCT,0.36,WeatherDisplay:10.37,2013-05-07 02:53:00,
2013-05-06 22:54:00,55.4,46.5,29.81,SW,229,0.0,0.0,72,0.00,,SCT,0.36,WeatherDisplay:10.37,2013-05-07 02:54:00,
2013-05-06 22:55:00,55.4,46.5,29.81,SW,229,0.0,0.0,72,0.00,,SCT,0.36,WeatherDisplay:10.37,2013-05-07 02:55:00,
2013-05-06 22:56:00,55.4,46.5,29.81,SW,229,0.0,0.0,72,0.00,,SCT,0.36,WeatherDisplay:10.37,2013-05-07 02:56:00,
2013-05-06 22:58:00,55.4,46.5,29.81,SW,229,0.0,0.0,72,0.00,,SCT,0.36,WeatherDisplay:10.37,2013-05-07 02:58:00,
2013-05-06 23:00:00,55.4,46.5,29.81,SW,229,0.0,0.0,72,0.00,,SCT,0.36,WeatherDisplay:10.37,2013-05-07 03:00:00,
2013-05-06 23:02:00,55.3,46.4,29.81,SW,229,0.0,0.0,72,0.00,,SCT,0.36,WeatherDisplay:10.37,2013-05-07 03:02:00,
2013-05-06 23:05:00,55.3,46.4,29.81,SW,229,0.0,0.0,72,0.00,,SCT,0.36,WeatherDisplay:10.37,2013-05-07 03:05:00,
2013-05-06 23:07:00,55.3,46.4,29.81,SW,229,0.0,0.0,72,0.00,,SCT,0.36,WeatherDisplay:10.37,2013-05-07 03:07:00,
2013-05-06 23:08:00,55.3,46.4,29.81,SW,229,0.0,0.0,72,0.00,,SCT,0.36,WeatherDisplay:10.37,2013-05-07 03:08:00,
2013-05-06 23:09:00,55.1,46.2,29.81,SW,229,0.0,0.0,72,0.00,,SCT,0.36,WeatherDisplay:10.37,2013-05-07 03:09:00,
2013-05-06 23:13:00,55.1,46.2,29.81,SW,229,0.0,0.0,72,0.00,,SCT,0.36,WeatherDisplay:10.37,2013-05-07 03:13:00,
2013-05-06 23:14:00,55.1,46.2,29.81,SW,229,0.0,0.0,72,0.00,,SCT,0.36,WeatherDisplay:10.37,2013-05-07 03:14:00,
2013-05-06 23:15:00,55.0,46.1,29.81,SW,229,0.0,0.0,72,0.00,,SCT,0.36,WeatherDisplay:10.37,2013-05-07 03:15:00,
2013-05-06 23:18:00,55.0,46.1,29.81,SW,229,0.0,0.0,72,0.00,,SCT,0.36,WeatherDisplay:10.37,2013-05-07 03:18:00,
2013-05-06 23:20:00,54.8,45.9,29.81,SW,229,0.0,0.0,72,0.00,,SCT,0.36,WeatherDisplay:10.37,2013-05-07 03:20:00,
2013-05-06 23:21:00,54.8,45.9,29.81,SW,229,0.0,0.0,72,0.00,,SCT,0.36,WeatherDisplay:10.37,2013-05-07 03:21:00,
2013-05-06 23:22:00,54.8,45.9,29.81,SW,229,0.0,0.0,72,0.00,,SCT,0.36,WeatherDisplay:10.37,2013-05-07 03:22:00,
2013-05-06 23:27:00,54.5,45.7,29.81,SW,229,0.0,0.0,72,0.00,,SCT,0.36,WeatherDisplay:10.37,2013-05-07 03:27:00,
2013-05-06 23:28:00,54.5,45.7,29.81,SW,229,0.0,0.0,72,0.00,,SCT,0.36,WeatherDisplay:10.37,2013-05-07 03:28:00,
2013-05-06 23:31:00,54.4,45.6,29.81,SW,229,0.0,0.0,72,0.00,,SCT,0.36,WeatherDisplay:10.37,2013-05-07 03:31:00,
2013-05-06 23:32:00,54.4,45.6,29.81,SW,229,0.0,0.0,72,0.00,,SCT,0.36,WeatherDisplay:10.37,2013-05-07 03:32:00,
2013-05-06 23:33:00,54.2,45.4,29.81,SW,229,0.0,0.0,72,0.00,,SCT,0.36,WeatherDisplay:10.37,2013-05-07 03:33:00,
2013-05-06 23:34:00,54.2,45.4,29.81,SW,229,0.0,0.0,72,0.00,,SCT,0.36,WeatherDisplay:10.37,2013-05-07 03:34:00,
2013-05-06 23:38:00,53.9,45.1,29.81,SW,229,0.0,0.0,72,0.00,,SCT,0.36,WeatherDisplay:10.37,2013-05-07 03:38:00,
2013-05-06 23:39:00,53.9,45.1,29.81,SW,229,0.0,0.0,72,0.00,,SCT,0.36,WeatherDisplay:10.37,2013-05-07 03:39:00,
2013-05-06 23:42:00,53.8,45.0,29.81,SW,229,0.0,0.0,72,0.00,,SCT,0.36,WeatherDisplay:10.37,2013-05-07 03:42:00,
2013-05-06 23:43:00,53.6,44.8,29.81,SW,229,0.0,0.0,72,0.00,,SCT,0.36,WeatherDisplay:10.37,2013-05-07 03:43:00,
2013-05-06 23:44:00,53.6,44.8,29.81,SW,229,0.0,0.0,72,0.00,,SCT,0.36,WeatherDisplay:10.37,2013-05-07 03:44:00,
2013-05-06 23:48:00,53.3,44.5,29.81,SW,229,0.0,0.0,72,0.00,,SCT,0.36,WeatherDisplay:10.37,2013-05-07 03:48:00,
2013-05-06 23:49:00,53.3,44.5,29.81,SW,229,0.0,0.0,72,0.00,,SCT,0.36,WeatherDisplay:10.37,2013-05-07 03:49:00,
2013-05-06 23:50:00,53.2,44.4,29.81,SW,229,0.0,0.0,72,0.00,,SCT,0.36,WeatherDisplay:10.37,2013-05-07 03:50:00,
2013-05-06 23:52:00,53.1,44.3,29.81,SW,229,0.0,0.0,72,0.00,,SCT,0.36,WeatherDisplay:10.37,2013-05-07 03:52:00,
2013-05-06 23:54:00,52.9,44.1,29.81,SW,229,0.0,0.0,72,0.00,,SCT,0.36,WeatherDisplay:10.37,2013-05-07 03:54:00,
2013-05-06 23:56:00,52.9,44.5,29.80,SW,229,0.0,0.0,73,0.00,,SCT,0.36,WeatherDisplay:10.37,2013-05-07 03:56:00,
2013-05-06 23:59:00,52.8,44.4,29.80,SW,229,0.0,0.0,73,0.00,,SCT,0.36,WeatherDisplay:10.37,2013-05-07 03:59:00,